Wetterdaten: Sonntag, 11.12.2016
Datum Zeit Temp. Aussen Temp. o. S. +5cm Feuchte Auss BlattFeu 1 Luftdruck Regen Sonnenschein Regendauer Solar Windben Empfang
11.12.2016 00:00 9,3 C 9,4 C 7,8 C 95 % 0 lf 1017,3 hPa 0,0 l/m 0 min 0 min 5 W/m 25,1 km/h (4 Bft) 93,62 %
11.12.2016 00:02 9,3 C 9,4 C 7,8 C 95 % 0 lf 1017,3 hPa 0,0 l/m 0 min 0 min 5 W/m 14,6 km/h (3 Bft) 94,12 %
11.12.2016 00:05 9,3 C 10,0 C 7,8 C 95 % 0 lf 1017,2 hPa 0,0 l/m 0 min 0 min 5 W/m 27,2 km/h (4 Bft) 97,59 %
11.12.2016 00:06 9,4 C 10,0 C 7,8 C 95 % 0 lf 1017,2 hPa 0,0 l/m 0 min 0 min 5 W/m 25,1 km/h (4 Bft) 100,00 %
11.12.2016 00:08 9,4 C 10,0 C 7,8 C 95 % 0 lf 1017,1 hPa 0,0 l/m 0 min 0 min 5 W/m 23,0 km/h (4 Bft) 97,87 %
11.12.2016 00:10 9,4 C 10,0 C 7,8 C 95 % 0 lf 1017,1 hPa 0,0 l/m 0 min 0 min 5 W/m 20,9 km/h (4 Bft) 97,87 %
11.12.2016 00:12 9,4 C 10,0 C 8,3 C 95 % 0 lf 1016,9 hPa 0,0 l/m 0 min 0 min 5 W/m 20,9 km/h (4 Bft) 97,83 %
11.12.2016 00:14 9,4 C 10,0 C 8,3 C 95 % 0 lf 1016,9 hPa 0,0 l/m 0 min 0 min 5 W/m 25,1 km/h (4 Bft) 95,74 %
11.12.2016 00:16 9,4 C 10,0 C 8,3 C 95 % 0 lf 1016,9 hPa 0,0 l/m 0 min 0 min 5 W/m 23,0 km/h (4 Bft) 91,49 %
11.12.2016 00:18 9,4 C 10,0 C 8,3 C 94 % 0 lf 1016,8 hPa 0,0 l/m 0 min 0 min 5 W/m 16,7 km/h (3 Bft) 97,87 %
11.12.2016 00:20 9,4 C 10,0 C 8,3 C 94 % 0 lf 1016,7 hPa 0,0 l/m 0 min 0 min 5 W/m 23,0 km/h (4 Bft) 97,87 %
11.12.2016 00:22 9,4 C 10,0 C 8,3 C 94 % 0 lf 1016,7 hPa 0,0 l/m 0 min 0 min 5 W/m 20,9 km/h (4 Bft) 95,74 %
11.12.2016 00:24 9,4 C 10,0 C 8,3 C 94 % 0 lf 1016,7 hPa 0,0 l/m 0 min 0 min 5 W/m 18,8 km/h (3 Bft) 95,65 %
11.12.2016 00:26 9,5 C 10,0 C 8,3 C 94 % 0 lf 1016,6 hPa 0,0 l/m 0 min 0 min 5 W/m 23,0 km/h (4 Bft) 95,74 %
11.12.2016 00:28 9,5 C 10,0 C 8,3 C 94 % 0 lf 1016,6 hPa 0,0 l/m 0 min 0 min 5 W/m 25,1 km/h (4 Bft) 100,00 %
11.12.2016 00:30 9,5 C 10,0 C 8,3 C 94 % 0 lf 1016,6 hPa 0,0 l/m 0 min 0 min 5 W/m 23,0 km/h (4 Bft) 97,87 %
11.12.2016 00:32 9,5 C 10,0 C 8,3 C 94 % 0 lf 1016,5 hPa 0,0 l/m 0 min 0 min 5 W/m 16,7 km/h (3 Bft) 93,62 %
11.12.2016 00:34 9,5 C 10,0 C 8,3 C 93 % 0 lf 1016,5 hPa 0,0 l/m 0 min 0 min 5 W/m 20,9 km/h (4 Bft) 95,74 %
11.12.2016 00:36 9,5 C 10,0 C 8,3 C 93 % 0 lf 1016,4 hPa 0,0 l/m 0 min 0 min 5 W/m 16,7 km/h (3 Bft) 93,48 %
11.12.2016 00:38 9,5 C 10,0 C 8,3 C 93 % 0 lf 1016,5 hPa 0,0 l/m 0 min 0 min 5 W/m 23,0 km/h (4 Bft) 93,62 %
11.12.2016 00:40 9,6 C 10,0 C 8,3 C 93 % 0 lf 1016,6 hPa 0,0 l/m 0 min 0 min 5 W/m 20,9 km/h (4 Bft) 93,62 %
11.12.2016 00:42 9,6 C 10,0 C 8,3 C 93 % 0 lf 1016,5 hPa 0,0 l/m 0 min 0 min 5 W/m 23,0 km/h (4 Bft) 95,74 %
11.12.2016 00:44 9,6 C 10,0 C 8,3 C 92 % 0 lf 1016,5 hPa 0,0 l/m 0 min 0 min 5 W/m 18,8 km/h (3 Bft) 93,62 %
11.12.2016 00:46 9,6 C 10,0 C 8,3 C 92 % 0 lf 1016,4 hPa 0,0 l/m 0 min 0 min 5 W/m 25,1 km/h (4 Bft) 95,74 %
11.12.2016 00:48 9,6 C 10,0 C 8,3 C 92 % 0 lf 1016,4 hPa 0,0 l/m 0 min 0 min 5 W/m 27,2 km/h (4 Bft) 95,65 %
11.12.2016 00:50 9,7 C 10,0 C 8,3 C 92 % 0 lf 1016,3 hPa 0,0 l/m 0 min 0 min 5 W/m 25,1 km/h (4 Bft) 93,62 %
11.12.2016 00:52 9,7 C 10,0 C 8,3 C 91 % 0 lf 1016,3 hPa 0,0 l/m 0 min 0 min 5 W/m 33,5 km/h (5 Bft) 91,49 %
11.12.2016 00:54 9,7 C 10,6 C 8,9 C 91 % 0 lf 1016,3 hPa 0,0 l/m 0 min 0 min 5 W/m 25,1 km/h (4 Bft) 95,74 %
11.12.2016 00:56 9,7 C 10,0 C 8,3 C 91 % 0 lf 1016,3 hPa 0,0 l/m 0 min 0 min 5 W/m 16,7 km/h (3 Bft) 93,62 %
11.12.2016 00:58 9,7 C 10,0 C 8,3 C 91 % 0 lf 1016,2 hPa 0,0 l/m 0 min 0 min 5 W/m 18,8 km/h (3 Bft) 91,30 %
11.12.2016 01:00 9,8 C 10,6 C 8,3 C 90 % 0 lf 1016,3 hPa 0,0 l/m 0 min 0 min 5 W/m 23,0 km/h (4 Bft) 93,62 %
11.12.2016 01:02 9,8 C 10,6 C 8,3 C 90 % 0 lf 1016,1 hPa 0,0 l/m 0 min 0 min 5 W/m 25,1 km/h (4 Bft) 97,87 %
11.12.2016 01:04 9,8 C 10,6 C 8,3 C 90 % 0 lf 1016,0 hPa 0,0 l/m 0 min 0 min 5 W/m 23,0 km/h (4 Bft) 95,74 %
11.12.2016 01:06 9,9 C 10,6 C 8,9 C 90 % 0 lf 1015,9 hPa 0,0 l/m 0 min 0 min 5 W/m 29,3 km/h (5 Bft) 91,49 %
11.12.2016 01:08 9,9 C 10,6 C 8,9 C 89 % 0 lf 1015,9 hPa 0,0 l/m 0 min 0 min 5 W/m 29,3 km/h (5 Bft) 95,74 %
11.12.2016 01:10 9,9 C 10,6 C 8,9 C 89 % 0 lf 1015,9 hPa 0,0 l/m 0 min 0 min 5 W/m 27,2 km/h (4 Bft) 91,49 %
11.12.2016 01:12 9,9 C 10,6 C 8,9 C 89 % 0 lf 1015,8 hPa 0,0 l/m 0 min 0 min 5 W/m 31,4 km/h (5 Bft) 95,65 %
11.12.2016 01:14 10,0 C 10,6 C 8,9 C 89 % 0 lf 1015,8 hPa 0,0 l/m 0 min 0 min 5 W/m 23,0 km/h (4 Bft) 95,74 %
11.12.2016 01:16 10,0 C 10,6 C 8,9 C 88 % 0 lf 1015,7 hPa 0,0 l/m 0 min 0 min 5 W/m 25,1 km/h (4 Bft) 97,87 %
11.12.2016 01:18 10,1 C 10,6 C 8,9 C 88 % 0 lf 1015,6 hPa 0,0 l/m 0 min 0 min 5 W/m 27,2 km/h (4 Bft) 95,74 %
11.12.2016 01:20 10,1 C 10,6 C 8,9 C 88 % 0 lf 1015,6 hPa 0,0 l/m 0 min 0 min 5 W/m 27,2 km/h (4 Bft) 97,87 %
11.12.2016 01:22 10,1 C 10,6 C 8,9 C 87 % 0 lf 1015,6 hPa 0,0 l/m 0 min 0 min 5 W/m 20,9 km/h (4 Bft) 97,83 %
11.12.2016 01:24 10,1 C 10,6 C 8,9 C 87 % 0 lf 1015,5 hPa 0,0 l/m 0 min 0 min 5 W/m 23,0 km/h (4 Bft) 95,74 %
11.12.2016 01:26 10,2 C 10,6 C 8,9 C 87 % 0 lf 1015,4 hPa 0,0 l/m 0 min 0 min 5 W/m 25,1 km/h (4 Bft) 95,74 %
11.12.2016 01:28 10,2 C 10,6 C 8,9 C 87 % 0 lf 1015,4 hPa 0,0 l/m 0 min 0 min 5 W/m 29,3 km/h (5 Bft) 100,00 %
11.12.2016 01:30 10,2 C 10,6 C 8,9 C 87 % 0 lf 1015,4 hPa 0,0 l/m 0 min 0 min 5 W/m 23,0 km/h (4 Bft) 97,87 %
11.12.2016 01:32 10,2 C 10,6 C 8,9 C 87 % 0 lf 1015,4 hPa 0,0 l/m 0 min 0 min 5 W/m 23,0 km/h (4 Bft) 100,00 %
11.12.2016 01:34 10,2 C 10,6 C 8,9 C 86 % 0 lf 1015,5 hPa 0,0 l/m 0 min 0 min 5 W/m 23,0 km/h (4 Bft) 97,83 %
11.12.2016 01:36 10,2 C 10,6 C 8,9 C 86 % 0 lf 1015,4 hPa 0,0 l/m 0 min 0 min 5 W/m 18,8 km/h (3 Bft) 95,74 %
11.12.2016 01:38 10,2 C 10,6 C 8,9 C 86 % 0 lf 1015,4 hPa 0,0 l/m 0 min 0 min 5 W/m 29,3 km/h (5 Bft) 95,74 %
11.12.2016 01:40 10,2 C 10,6 C 8,9 C 86 % 0 lf 1015,3 hPa 0,0 l/m 0 min 0 min 5 W/m 20,9 km/h (4 Bft) 97,87 %
11.12.2016 01:42 10,3 C 10,6 C 8,9 C 86 % 0 lf 1015,3 hPa 0,0 l/m 0 min 0 min 5 W/m 16,7 km/h (3 Bft) 100,00 %
11.12.2016 01:44 10,3 C 10,6 C 8,9 C 86 % 0 lf 1015,3 hPa 0,0 l/m 0 min 0 min 5 W/m 29,3 km/h (5 Bft) 97,87 %
11.12.2016 01:46 10,3 C 10,6 C 8,9 C 86 % 0 lf 1015,3 hPa 0,0 l/m 0 min 0 min 5 W/m 29,3 km/h (5 Bft) 97,83 %
11.12.2016 01:48 10,3 C 10,6 C 8,9 C 86 % 2 lf 1015,3 hPa 0,0 l/m 0 min 0 min 5 W/m 20,9 km/h (4 Bft) 100,00 %
11.12.2016 01:50 10,3 C 10,6 C 8,9 C 86 % 1 lf 1015,3 hPa 0,0 l/m 0 min 0 min 5 W/m 35,6 km/h (5 Bft) 95,74 %
11.12.2016 01:52 10,3 C 10,6 C 8,9 C 86 % 0 lf 1015,3 hPa 0,0 l/m 0 min 2 min 5 W/m 27,2 km/h (4 Bft) 97,87 %
11.12.2016 01:54 10,3 C 10,6 C 8,3 C 86 % 4 lf 1015,2 hPa 0,0 l/m 0 min 2 min 5 W/m 23,0 km/h (4 Bft) 97,87 %
11.12.2016 01:56 10,3 C 10,6 C 8,3 C 86 % 2 lf 1015,2 hPa 0,0 l/m 0 min 0 min 5 W/m 23,0 km/h (4 Bft) 93,62 %
11.12.2016 01:58 10,3 C 10,6 C 8,3 C 86 % 1 lf 1015,2 hPa 0,0 l/m 0 min 0 min 5 W/m 25,1 km/h (4 Bft) 97,83 %
11.12.2016 02:00 10,3 C 10,6 C 8,3 C 86 % 1 lf 1015,2 hPa 0,0 l/m 0 min 0 min 5 W/m 29,3 km/h (5 Bft) 93,62 %
11.12.2016 02:02 10,3 C 10,6 C 8,3 C 86 % 1 lf 1015,2 hPa 0,0 l/m 0 min 0 min 5 W/m 27,2 km/h (4 Bft) 97,87 %
11.12.2016 02:04 10,3 C 10,6 C 8,3 C 86 % 0 lf 1015,2 hPa 0,0 l/m 0 min 0 min 5 W/m 23,0 km/h (4 Bft) 95,74 %
11.12.2016 02:06 10,3 C 10,6 C 8,3 C 86 % 2 lf 1015,3 hPa 0,0 l/m 0 min 0 min 5 W/m 37,7 km/h (5 Bft) 97,87 %
11.12.2016 02:08 10,3 C 10,6 C 8,9 C 86 % 0 lf 1015,1 hPa 0,0 l/m 0 min 2 min 5 W/m 31,4 km/h (5 Bft) 97,87 %
11.12.2016 02:10 10,3 C 10,6 C 8,9 C 86 % 2 lf 1015,2 hPa 0,0 l/m 0 min 2 min 5 W/m 23,0 km/h (4 Bft) 97,78 %
11.12.2016 02:12 10,3 C 10,6 C 8,9 C 86 % 12 lf 1015,1 hPa 0,0 l/m 0 min 2 min 5 W/m 27,2 km/h (4 Bft) 93,62 %
11.12.2016 02:14 10,3 C 10,0 C 8,3 C 86 % 11 lf 1015,2 hPa 0,0 l/m 0 min 2 min 5 W/m 23,0 km/h (4 Bft) 93,62 %
11.12.2016 02:16 10,3 C 10,0 C 8,3 C 86 % 13 lf 1014,9 hPa 0,0 l/m 0 min 0 min 5 W/m 31,4 km/h (5 Bft) 93,62 %
11.12.2016 02:18 10,3 C 10,0 C 8,3 C 86 % 15 lf 1015,0 hPa 0,0 l/m 0 min 2 min 5 W/m 46,0 km/h (6 Bft) 89,36 %
11.12.2016 02:20 10,3 C 10,0 C 8,3 C 87 % 15 lf 1014,9 hPa 0,0 l/m 0 min 2 min 5 W/m 31,4 km/h (5 Bft) 95,65 %
11.12.2016 02:22 10,3 C 9,4 C 7,8 C 87 % 15 lf 1014,9 hPa 0,0 l/m 0 min 2 min 5 W/m 25,1 km/h (4 Bft) 97,87 %
11.12.2016 02:24 10,3 C 9,4 C 7,8 C 87 % 15 lf 1014,8 hPa 0,2 l/m 0 min 2 min 5 W/m 33,5 km/h (5 Bft) 97,87 %
11.12.2016 02:26 10,3 C 9,4 C 7,8 C 87 % 15 lf 1014,8 hPa 0,0 l/m 0 min 2 min 5 W/m 33,5 km/h (5 Bft) 95,74 %
11.12.2016 02:28 10,3 C 8,9 C 7,8 C 88 % 15 lf 1014,9 hPa 0,0 l/m 0 min 2 min 5 W/m 35,6 km/h (5 Bft) 89,36 %
11.12.2016 02:30 10,2 C 8,9 C 7,2 C 88 % 15 lf 1014,8 hPa 0,0 l/m 0 min 2 min 5 W/m 29,3 km/h (5 Bft) 93,62 %
11.12.2016 02:32 10,2 C 8,9 C 7,2 C 88 % 15 lf 1014,9 hPa 0,0 l/m 0 min 2 min 5 W/m 35,6 km/h (5 Bft) 93,48 %
11.12.2016 02:34 10,1 C 8,9 C 7,2 C 89 % 15 lf 1014,9 hPa 0,0 l/m 0 min 2 min 5 W/m 35,6 km/h (5 Bft) 91,49 %
11.12.2016 02:36 10,1 C 8,9 C 7,2 C 89 % 15 lf 1014,9 hPa 0,2 l/m 0 min 2 min 5 W/m 31,4 km/h (5 Bft) 93,62 %
11.12.2016 02:38 10,0 C 8,9 C 7,2 C 89 % 15 lf 1014,8 hPa 0,0 l/m 0 min 2 min 5 W/m 31,4 km/h (5 Bft) 93,62 %
11.12.2016 02:40 10,0 C 8,9 C 7,2 C 90 % 15 lf 1014,9 hPa 0,2 l/m 0 min 2 min 5 W/m 31,4 km/h (5 Bft) 89,36 %
11.12.2016 02:42 9,9 C 8,9 C 7,2 C 90 % 15 lf 1014,7 hPa 0,0 l/m 0 min 2 min 5 W/m 27,2 km/h (4 Bft) 91,49 %
11.12.2016 02:44 9,9 C 8,9 C 7,2 C 90 % 15 lf 1014,7 hPa 0,0 l/m 0 min 2 min 5 W/m 25,1 km/h (4 Bft) 91,49 %
11.12.2016 02:46 9,8 C 8,9 C 7,2 C 90 % 15 lf 1014,7 hPa 0,0 l/m 0 min 2 min 5 W/m 27,2 km/h (4 Bft) 93,48 %
11.12.2016 02:48 9,8 C 8,9 C 7,2 C 91 % 15 lf 1014,7 hPa 0,2 l/m 0 min 2 min 5 W/m 31,4 km/h (5 Bft) 91,49 %
11.12.2016 02:50 9,8 C 8,9 C 7,2 C 91 % 15 lf 1014,7 hPa 0,0 l/m 0 min 2 min 5 W/m 31,4 km/h (5 Bft) 91,49 %
11.12.2016 02:52 9,7 C 8,9 C 7,2 C 91 % 15 lf 1014,7 hPa 0,0 l/m 0 min 2 min 5 W/m 33,5 km/h (5 Bft) 93,62 %
11.12.2016 02:54 9,7 C 8,9 C 7,2 C 91 % 15 lf 1014,6 hPa 0,0 l/m 0 min 2 min 5 W/m 31,4 km/h (5 Bft) 93,62 %
11.12.2016 02:56 9,7 C 8,9 C 7,2 C 91 % 15 lf 1014,5 hPa 0,0 l/m 0 min 2 min 5 W/m 35,6 km/h (5 Bft) 93,48 %
11.12.2016 02:58 9,6 C 8,9 C 7,2 C 92 % 15 lf 1014,5 hPa 0,0 l/m 0 min 2 min 5 W/m 35,6 km/h (5 Bft) 91,49 %
11.12.2016 03:00 9,6 C 8,9 C 7,2 C 92 % 15 lf 1014,5 hPa 0,0 l/m 0 min 2 min 5 W/m 31,4 km/h (5 Bft) 93,62 %
11.12.2016 03:02 9,6 C 8,9 C 7,2 C 92 % 15 lf 1014,4 hPa 0,0 l/m 0 min 2 min 5 W/m 20,9 km/h (4 Bft) 97,87 %
11.12.2016 03:04 9,6 C 8,9 C 7,2 C 92 % 15 lf 1014,3 hPa 0,2 l/m 0 min 2 min 5 W/m 31,4 km/h (5 Bft) 97,87 %
11.12.2016 03:06 9,6 C 8,9 C 7,2 C 92 % 15 lf 1014,3 hPa 0,0 l/m 0 min 2 min 5 W/m 33,5 km/h (5 Bft) 97,87 %
11.12.2016 03:08 9,5 C 8,9 C 7,2 C 93 % 15 lf 1014,3 hPa 0,0 l/m 0 min 2 min 5 W/m 33,5 km/h (5 Bft) 97,83 %
11.12.2016 03:10 9,5 C 8,9 C 7,2 C 93 % 15 lf 1014,3 hPa 0,0 l/m 0 min 2 min 5 W/m 46,0 km/h (6 Bft) 95,74 %
11.12.2016 03:12 9,5 C 8,9 C 7,2 C 93 % 15 lf 1014,3 hPa 0,0 l/m 0 min 2 min 5 W/m 39,7 km/h (6 Bft) 97,87 %
11.12.2016 03:14 9,5 C 8,9 C 7,2 C 93 % 15 lf 1014,2 hPa 0,0 l/m 0 min 2 min 5 W/m 48,1 km/h (6 Bft) 100,00 %
11.12.2016 03:16 9,5 C 8,9 C 7,2 C 93 % 15 lf 1014,2 hPa 0,2 l/m 0 min 2 min 5 W/m 56,5 km/h (7 Bft) 97,87 %
11.12.2016 03:18 9,5 C 8,9 C 7,2 C 93 % 15 lf 1014,2 hPa 0,0 l/m 0 min 2 min 5 W/m 48,1 km/h (6 Bft) 97,87 %
11.12.2016 03:20 9,5 C 8,9 C 7,2 C 93 % 15 lf 1014,2 hPa 0,2 l/m 0 min 2 min 5 W/m 46,0 km/h (6 Bft) 100,00 %
11.12.2016 03:22 9,5 C 8,9 C 7,2 C 93 % 15 lf 1014,1 hPa 0,0 l/m 0 min 2 min 5 W/m 33,5 km/h (5 Bft) 97,87 %
11.12.2016 03:24 9,4 C 8,9 C 7,2 C 93 % 15 lf 1014,2 hPa 0,0 l/m 0 min 2 min 5 W/m 43,9 km/h (6 Bft) 100,00 %
11.12.2016 03:26 9,4 C 8,9 C 7,2 C 94 % 15 lf 1014,0 hPa 0,2 l/m 0 min 2 min 5 W/m 46,0 km/h (6 Bft) 95,74 %
11.12.2016 03:28 9,4 C 8,9 C 7,2 C 94 % 15 lf 1014,0 hPa 0,0 l/m 0 min 2 min 5 W/m 43,9 km/h (6 Bft) 100,00 %
11.12.2016 03:30 9,4 C 8,9 C 7,2 C 94 % 15 lf 1014,0 hPa 0,0 l/m 0 min 2 min 5 W/m 33,5 km/h (5 Bft) 97,83 %
11.12.2016 03:32 9,4 C 8,9 C 7,2 C 94 % 15 lf 1014,0 hPa 0,0 l/m 0 min 2 min 5 W/m 48,1 km/h (6 Bft) 97,87 %
11.12.2016 03:34 9,4 C 8,9 C 7,2 C 94 % 15 lf 1014,0 hPa 0,0 l/m 0 min 2 min 5 W/m 37,7 km/h (5 Bft) 97,87 %
11.12.2016 03:36 9,4 C 8,9 C 7,2 C 94 % 15 lf 1014,1 hPa 0,2 l/m 0 min 2 min 5 W/m 37,7 km/h (5 Bft) 97,87 %
11.12.2016 03:38 9,4 C 8,9 C 7,2 C 94 % 15 lf 1014,1 hPa 0,0 l/m 0 min 2 min 5 W/m 35,6 km/h (5 Bft) 95,74 %
11.12.2016 03:40 9,4 C 8,9 C 7,2 C 94 % 15 lf 1014,1 hPa 0,0 l/m 0 min 2 min 5 W/m 37,7 km/h (5 Bft) 97,87 %
11.12.2016 03:42 9,4 C 8,9 C 7,2 C 94 % 15 lf 1014,0 hPa 0,0 l/m 0 min 2 min 5 W/m 27,2 km/h (4 Bft) 91,49 %
11.12.2016 03:44 9,3 C 8,9 C 7,2 C 94 % 15 lf 1014,1 hPa 0,0 l/m 0 min 2 min 5 W/m 39,7 km/h (6 Bft) 97,83 %
11.12.2016 03:46 9,3 C 8,9 C 7,2 C 94 % 15 lf 1014,1 hPa 0,0 l/m 0 min 2 min 5 W/m 52,3 km/h (7 Bft) 95,74 %
11.12.2016 03:48 9,3 C 8,9 C 7,2 C 94 % 15 lf 1014,1 hPa 0,0 l/m 0 min 2 min 5 W/m 46,0 km/h (6 Bft) 93,62 %
11.12.2016 03:50 9,3 C 8,9 C 7,2 C 94 % 15 lf 1014,1 hPa 0,0 l/m 0 min 2 min 5 W/m 37,7 km/h (5 Bft) 93,62 %
11.12.2016 03:52 9,3 C 8,9 C 7,2 C 94 % 15 lf 1014,2 hPa 0,2 l/m 0 min 2 min 5 W/m 54,4 km/h (7 Bft) 95,74 %
11.12.2016 03:54 9,3 C 8,9 C 7,2 C 94 % 15 lf 1014,1 hPa 0,0 l/m 0 min 2 min 5 W/m 39,7 km/h (6 Bft) 97,83 %
11.12.2016 03:56 9,3 C 8,9 C 7,2 C 94 % 15 lf 1014,2 hPa 0,0 l/m 0 min 2 min 5 W/m 48,1 km/h (6 Bft) 95,74 %
11.12.2016 03:58 9,3 C 8,9 C 7,2 C 95 % 15 lf 1014,2 hPa 0,0 l/m 0 min 2 min 5 W/m 41,8 km/h (6 Bft) 95,74 %
11.12.2016 04:00 9,3 C 8,9 C 7,8 C 95 % 15 lf 1014,1 hPa 0,0 l/m 0 min 2 min 5 W/m 50,2 km/h (7 Bft) 95,74 %
11.12.2016 04:02 9,3 C 8,9 C 7,8 C 95 % 15 lf 1014,1 hPa 0,0 l/m 0 min 2 min 5 W/m 46,0 km/h (6 Bft) 93,33 %
11.12.2016 04:04 9,3 C 8,9 C 7,8 C 95 % 15 lf 1014,1 hPa 0,0 l/m 0 min 2 min 5 W/m 50,2 km/h (7 Bft) 93,62 %
11.12.2016 04:06 9,4 C 8,9 C 7,8 C 95 % 15 lf 1014,3 hPa 0,0 l/m 0 min 2 min 5 W/m 50,2 km/h (7 Bft) 97,83 %
11.12.2016 04:08 9,3 C 8,9 C 7,8 C 95 % 15 lf 1014,1 hPa 0,0 l/m 0 min 2 min 5 W/m 37,7 km/h (5 Bft) 97,87 %
11.12.2016 04:10 9,4 C 8,9 C 7,8 C 95 % 15 lf 1014,1 hPa 0,0 l/m 0 min 2 min 5 W/m 62,8 km/h (8 Bft) 93,62 %
11.12.2016 04:12 9,4 C 8,9 C 7,8 C 95 % 15 lf 1014,2 hPa 0,0 l/m 0 min 2 min 5 W/m 48,1 km/h (6 Bft) 93,62 %
11.12.2016 04:14 9,4 C 8,9 C 7,8 C 95 % 15 lf 1014,0 hPa 0,0 l/m 0 min 2 min 5 W/m 46,0 km/h (6 Bft) 95,74 %
11.12.2016 04:16 9,4 C 8,9 C 7,8 C 95 % 15 lf 1014,2 hPa 0,0 l/m 0 min 2 min 5 W/m 48,1 km/h (6 Bft) 95,74 %
11.12.2016 04:18 9,4 C 8,9 C 7,8 C 95 % 15 lf 1014,1 hPa 0,0 l/m 0 min 2 min 5 W/m 58,6 km/h (7 Bft) 95,65 %
11.12.2016 04:20 9,4 C 8,9 C 7,8 C 95 % 15 lf 1014,2 hPa 0,0 l/m 0 min 2 min 5 W/m 43,9 km/h (6 Bft) 95,74 %
11.12.2016 04:22 9,4 C 8,9 C 7,8 C 95 % 15 lf 1014,2 hPa 0,0 l/m 0 min 2 min 5 W/m 39,7 km/h (6 Bft) 95,74 %
11.12.2016 04:24 9,3 C 8,9 C 7,8 C 95 % 15 lf 1014,2 hPa 0,0 l/m 0 min 2 min 5 W/m 41,8 km/h (6 Bft) 97,87 %
11.12.2016 04:26 9,3 C 8,9 C 7,8 C 95 % 15 lf 1014,2 hPa 0,0 l/m 0 min 2 min 5 W/m 39,7 km/h (6 Bft) 95,74 %
11.12.2016 04:28 9,3 C 8,9 C 7,8 C 95 % 15 lf 1014,3 hPa 0,0 l/m 0 min 2 min 5 W/m 50,2 km/h (7 Bft) 97,87 %
11.12.2016 04:30 9,3 C 8,9 C 7,8 C 95 % 15 lf 1014,2 hPa 0,0 l/m 0 min 2 min 5 W/m 50,2 km/h (7 Bft) 97,83 %
11.12.2016 04:32 9,3 C 8,9 C 7,8 C 95 % 15 lf 1014,2 hPa 0,0 l/m 0 min 2 min 5 W/m 46,0 km/h (6 Bft) 95,74 %
11.12.2016 04:34 9,3 C 8,9 C 7,8 C 95 % 15 lf 1014,2 hPa 0,0 l/m 0 min 2 min 5 W/m 37,7 km/h (5 Bft) 95,74 %
11.12.2016 04:36 9,3 C 8,9 C 7,8 C 95 % 15 lf 1014,2 hPa 0,0 l/m 0 min 2 min 5 W/m 27,2 km/h (4 Bft) 97,87 %
11.12.2016 04:38 9,3 C 8,9 C 7,8 C 95 % 15 lf 1014,2 hPa 0,0 l/m 0 min 0 min 5 W/m 25,1 km/h (4 Bft) 97,87 %
11.12.2016 04:40 9,3 C 8,9 C 7,8 C 95 % 15 lf 1014,3 hPa 0,0 l/m 0 min 2 min 5 W/m 56,5 km/h (7 Bft) 97,87 %
11.12.2016 04:42 9,3 C 8,9 C 7,8 C 95 % 15 lf 1014,3 hPa 0,0 l/m 0 min 2 min 5 W/m 41,8 km/h (6 Bft) 95,65 %
11.12.2016 04:44 9,2 C 8,9 C 7,8 C 95 % 15 lf 1014,5 hPa 0,0 l/m 0 min 2 min 5 W/m 46,0 km/h (6 Bft) 91,49 %
11.12.2016 04:46 9,2 C 8,3 C 7,2 C 95 % 15 lf 1014,5 hPa 0,0 l/m 0 min 2 min 5 W/m 46,0 km/h (6 Bft) 95,74 %
11.12.2016 04:48 9,1 C 8,3 C 7,2 C 95 % 15 lf 1014,7 hPa 0,0 l/m 0 min 2 min 5 W/m 31,4 km/h (5 Bft) 97,87 %
11.12.2016 04:50 9,1 C 8,3 C 7,2 C 95 % 15 lf 1014,6 hPa 0,0 l/m 0 min 0 min 5 W/m 35,6 km/h (5 Bft) 95,74 %
11.12.2016 04:52 9,1 C 8,3 C 7,2 C 95 % 15 lf 1014,8 hPa 0,0 l/m 0 min 2 min 5 W/m 37,7 km/h (5 Bft) 100,00 %
11.12.2016 04:54 9,0 C 8,3 C 7,2 C 95 % 15 lf 1014,9 hPa 0,0 l/m 0 min 2 min 5 W/m 39,7 km/h (6 Bft) 100,00 %
11.12.2016 04:56 8,9 C 8,3 C 7,2 C 95 % 15 lf 1015,1 hPa 0,0 l/m 0 min 2 min 5 W/m 39,7 km/h (6 Bft) 97,87 %
11.12.2016 04:58 8,9 C 8,3 C 7,2 C 95 % 15 lf 1015,2 hPa 0,0 l/m 0 min 0 min 5 W/m 29,3 km/h (5 Bft) 97,87 %
11.12.2016 05:00 8,9 C 8,3 C 7,2 C 95 % 15 lf 1015,3 hPa 0,0 l/m 0 min 2 min 5 W/m 43,9 km/h (6 Bft) 95,74 %
11.12.2016 05:02 8,8 C 8,3 C 7,2 C 95 % 15 lf 1015,3 hPa 0,0 l/m 0 min 2 min 5 W/m 31,4 km/h (5 Bft) 100,00 %
11.12.2016 05:04 8,8 C 8,3 C 7,2 C 94 % 15 lf 1015,4 hPa 0,0 l/m 0 min 2 min 5 W/m 39,7 km/h (6 Bft) 95,65 %
11.12.2016 05:06 8,8 C 8,3 C 7,2 C 94 % 15 lf 1015,5 hPa 0,0 l/m 0 min 2 min 5 W/m 31,4 km/h (5 Bft) 97,87 %
11.12.2016 05:08 8,8 C 8,3 C 7,2 C 94 % 15 lf 1015,5 hPa 0,0 l/m 0 min 0 min 5 W/m 37,7 km/h (5 Bft) 95,74 %
11.12.2016 05:10 8,8 C 8,3 C 7,2 C 94 % 15 lf 1015,6 hPa 0,0 l/m 0 min 0 min 5 W/m 37,7 km/h (5 Bft) 97,87 %
11.12.2016 05:12 8,7 C 8,3 C 7,2 C 94 % 15 lf 1015,8 hPa 0,0 l/m 0 min 2 min 5 W/m 27,2 km/h (4 Bft) 93,62 %
11.12.2016 05:14 8,7 C 8,3 C 7,2 C 94 % 15 lf 1015,9 hPa 0,0 l/m 0 min 2 min 5 W/m 37,7 km/h (5 Bft) 97,87 %
11.12.2016 05:16 8,7 C 8,3 C 7,2 C 94 % 15 lf 1016,1 hPa 0,0 l/m 0 min 2 min 5 W/m 39,7 km/h (6 Bft) 95,65 %
11.12.2016 05:18 8,7 C 8,3 C 7,2 C 94 % 15 lf 1016,1 hPa 0,0 l/m 0 min 2 min 5 W/m 39,7 km/h (6 Bft) 93,62 %
11.12.2016 05:20 8,7 C 8,3 C 7,2 C 93 % 15 lf 1016,1 hPa 0,0 l/m 0 min 0 min 5 W/m 39,7 km/h (6 Bft) 97,87 %
11.12.2016 05:22 8,6 C 8,3 C 7,2 C 93 % 15 lf 1016,3 hPa 0,0 l/m 0 min 0 min 5 W/m 39,7 km/h (6 Bft) 97,87 %
11.12.2016 05:24 8,6 C 7,8 C 6,7 C 93 % 15 lf 1016,3 hPa 0,0 l/m 0 min 0 min 5 W/m 31,4 km/h (5 Bft) 95,74 %
11.12.2016 05:26 8,6 C 7,8 C 6,7 C 93 % 15 lf 1016,4 hPa 0,0 l/m 0 min 0 min 5 W/m 41,8 km/h (6 Bft) 93,62 %
11.12.2016 05:28 8,6 C 7,8 C 6,7 C 93 % 15 lf 1016,4 hPa 0,0 l/m 0 min 0 min 5 W/m 27,2 km/h (4 Bft) 95,65 %
11.12.2016 05:30 8,5 C 7,8 C 6,7 C 93 % 15 lf 1016,4 hPa 0,0 l/m 0 min 0 min 5 W/m 29,3 km/h (5 Bft) 97,87 %
11.12.2016 05:32 8,5 C 7,8 C 6,7 C 93 % 15 lf 1016,5 hPa 0,0 l/m 0 min 0 min 5 W/m 27,2 km/h (4 Bft) 95,74 %
11.12.2016 05:34 8,5 C 7,8 C 6,7 C 93 % 15 lf 1016,5 hPa 0,0 l/m 0 min 0 min 5 W/m 27,2 km/h (4 Bft) 97,87 %
11.12.2016 05:36 8,4 C 7,8 C 6,7 C 93 % 15 lf 1016,5 hPa 0,0 l/m 0 min 2 min 5 W/m 43,9 km/h (6 Bft) 97,87 %
11.12.2016 05:38 8,4 C 7,8 C 6,7 C 93 % 14 lf 1016,6 hPa 0,0 l/m 0 min 0 min 5 W/m 35,6 km/h (5 Bft) 97,87 %
11.12.2016 05:40 8,4 C 7,8 C 6,7 C 92 % 14 lf 1016,7 hPa 0,0 l/m 0 min 0 min 5 W/m 31,4 km/h (5 Bft) 95,65 %
11.12.2016 05:42 8,4 C 7,8 C 6,7 C 92 % 14 lf 1016,8 hPa 0,0 l/m 0 min 0 min 5 W/m 25,1 km/h (4 Bft) 97,87 %
11.12.2016 05:44 8,4 C 7,8 C 6,7 C 92 % 12 lf 1016,8 hPa 0,0 l/m 0 min 0 min 5 W/m 27,2 km/h (4 Bft) 95,74 %
11.12.2016 05:46 8,3 C 7,8 C 6,7 C 92 % 10 lf 1016,9 hPa 0,0 l/m 0 min 0 min 5 W/m 20,9 km/h (4 Bft) 95,74 %
11.12.2016 05:48 8,3 C 7,8 C 6,7 C 92 % 8 lf 1016,9 hPa 0,0 l/m 0 min 0 min 5 W/m 23,0 km/h (4 Bft) 97,87 %
11.12.2016 05:50 8,3 C 7,8 C 6,7 C 92 % 4 lf 1016,9 hPa 0,0 l/m 0 min 0 min 5 W/m 29,3 km/h (5 Bft) 100,00 %
11.12.2016 05:52 8,3 C 7,8 C 6,7 C 92 % 3 lf 1017,0 hPa 0,0 l/m 0 min 0 min 5 W/m 20,9 km/h (4 Bft) 100,00 %
11.12.2016 05:54 8,3 C 7,8 C 6,7 C 92 % 3 lf 1017,0 hPa 0,0 l/m 0 min 0 min 5 W/m 27,2 km/h (4 Bft) 95,74 %
11.12.2016 05:56 8,3 C 7,8 C 6,7 C 92 % 2 lf 1017,1 hPa 0,0 l/m 0 min 0 min 5 W/m 18,8 km/h (3 Bft) 97,87 %
11.12.2016 05:58 8,3 C 7,8 C 6,7 C 92 % 1 lf 1017,1 hPa 0,0 l/m 0 min 0 min 5 W/m 20,9 km/h (4 Bft) 95,74 %
11.12.2016 06:00 8,3 C 7,8 C 6,7 C 92 % 1 lf 1017,1 hPa 0,0 l/m 0 min 0 min 5 W/m 27,2 km/h (4 Bft) 97,87 %
11.12.2016 06:02 8,2 C 7,8 C 6,7 C 92 % 1 lf 1017,1 hPa 0,0 l/m 0 min 0 min 5 W/m 25,1 km/h (4 Bft) 95,74 %
11.12.2016 06:06 8,2 C 7,8 C 6,7 C 92 % 0 lf 1017,2 hPa 0,0 l/m 0 min 0 min 5 W/m 31,4 km/h (5 Bft) 96,81 %
11.12.2016 06:08 8,2 C 7,8 C 6,7 C 92 % 0 lf 1017,2 hPa 0,0 l/m 0 min 0 min 5 W/m 25,1 km/h (4 Bft) 93,48 %
11.12.2016 06:10 8,2 C 7,8 C 6,7 C 92 % 0 lf 1017,2 hPa 0,0 l/m 0 min 0 min 5 W/m 23,0 km/h (4 Bft) 95,74 %
11.12.2016 06:12 8,2 C 7,8 C 6,7 C 92 % 0 lf 1017,3 hPa 0,0 l/m 0 min 0 min 5 W/m 25,1 km/h (4 Bft) 91,49 %
11.12.2016 06:14 8,2 C 7,8 C 6,7 C 92 % 0 lf 1017,4 hPa 0,0 l/m 0 min 0 min 5 W/m 29,3 km/h (5 Bft) 93,62 %
11.12.2016 06:16 8,2 C 7,8 C 6,7 C 92 % 0 lf 1017,3 hPa 0,0 l/m 0 min 0 min 5 W/m 35,6 km/h (5 Bft) 95,74 %
11.12.2016 06:18 8,2 C 7,8 C 6,7 C 92 % 0 lf 1017,5 hPa 0,0 l/m 0 min 0 min 5 W/m 23,0 km/h (4 Bft) 95,74 %
11.12.2016 06:20 8,2 C 7,8 C 6,7 C 92 % 0 lf 1017,5 hPa 0,0 l/m 0 min 0 min 5 W/m 37,7 km/h (5 Bft) 95,65 %
11.12.2016 06:22 8,2 C 7,8 C 6,7 C 92 % 0 lf 1017,4 hPa 0,0 l/m 0 min 0 min 5 W/m 23,0 km/h (4 Bft) 89,36 %
11.12.2016 06:24 8,2 C 7,8 C 6,7 C 92 % 0 lf 1017,4 hPa 0,0 l/m 0 min 0 min 5 W/m 33,5 km/h (5 Bft) 95,74 %
11.12.2016 06:26 8,1 C 7,8 C 6,7 C 92 % 0 lf 1017,4 hPa 0,0 l/m 0 min 0 min 5 W/m 23,0 km/h (4 Bft) 91,49 %
11.12.2016 06:28 8,1 C 7,8 C 6,7 C 92 % 0 lf 1017,5 hPa 0,0 l/m 0 min 0 min 5 W/m 27,2 km/h (4 Bft) 91,49 %
11.12.2016 06:30 8,1 C 7,8 C 6,7 C 92 % 0 lf 1017,6 hPa 0,0 l/m 0 min 0 min 5 W/m 23,0 km/h (4 Bft) 95,65 %
11.12.2016 06:32 8,1 C 7,8 C 6,7 C 92 % 0 lf 1017,6 hPa 0,0 l/m 0 min 0 min 5 W/m 20,9 km/h (4 Bft) 93,62 %
11.12.2016 06:34 8,1 C 7,8 C 6,7 C 92 % 0 lf 1017,7 hPa 0,0 l/m 0 min 0 min 5 W/m 23,0 km/h (4 Bft) 91,49 %
11.12.2016 06:36 8,1 C 7,8 C 6,7 C 92 % 0 lf 1017,7 hPa 0,0 l/m 0 min 0 min 5 W/m 25,1 km/h (4 Bft) 91,49 %
11.12.2016 06:38 8,1 C 7,8 C 6,7 C 92 % 0 lf 1017,7 hPa 0,0 l/m 0 min 0 min 5 W/m 27,2 km/h (4 Bft) 89,36 %
11.12.2016 06:40 8,1 C 7,8 C 6,7 C 92 % 0 lf 1017,7 hPa 0,0 l/m 0 min 0 min 5 W/m 29,3 km/h (5 Bft) 95,74 %
11.12.2016 06:42 8,1 C 7,8 C 6,7 C 92 % 0 lf 1017,8 hPa 0,0 l/m 0 min 0 min 5 W/m 23,0 km/h (4 Bft) 93,48 %
11.12.2016 06:44 8,1 C 7,8 C 6,7 C 92 % 0 lf 1017,8 hPa 0,0 l/m 0 min 0 min 5 W/m 25,1 km/h (4 Bft) 95,74 %
11.12.2016 06:46 8,1 C 7,8 C 6,7 C 92 % 0 lf 1017,9 hPa 0,0 l/m 0 min 0 min 5 W/m 20,9 km/h (4 Bft) 93,62 %
11.12.2016 06:48 8,1 C 7,8 C 6,7 C 92 % 0 lf 1018,0 hPa 0,0 l/m 0 min 0 min 5 W/m 23,0 km/h (4 Bft) 95,74 %
11.12.2016 06:50 8,1 C 7,8 C 6,7 C 92 % 0 lf 1018,1 hPa 0,0 l/m 0 min 0 min 5 W/m 25,1 km/h (4 Bft) 93,62 %
11.12.2016 06:52 8,1 C 7,8 C 6,7 C 92 % 0 lf 1018,2 hPa 0,0 l/m 0 min 0 min 5 W/m 16,7 km/h (3 Bft) 93,62 %
11.12.2016 06:54 8,1 C 7,8 C 6,7 C 92 % 0 lf 1018,2 hPa 0,0 l/m 0 min 0 min 5 W/m 20,9 km/h (4 Bft) 93,48 %
11.12.2016 06:56 8,1 C 7,8 C 6,7 C 92 % 2 lf 1018,3 hPa 0,0 l/m 0 min 0 min 5 W/m 14,6 km/h (3 Bft) 95,74 %
11.12.2016 06:58 8,1 C 7,8 C 6,1 C 92 % 1 lf 1018,5 hPa 0,0 l/m 0 min 0 min 5 W/m 16,7 km/h (3 Bft) 93,62 %
11.12.2016 07:00 8,1 C 7,8 C 6,1 C 92 % 1 lf 1018,5 hPa 0,0 l/m 0 min 0 min 5 W/m 29,3 km/h (5 Bft) 93,62 %
11.12.2016 07:02 8,1 C 7,8 C 6,1 C 92 % 3 lf 1018,6 hPa 0,0 l/m 0 min 0 min 5 W/m 18,8 km/h (3 Bft) 91,49 %
11.12.2016 07:04 8,1 C 7,8 C 6,1 C 92 % 15 lf 1018,6 hPa 0,0 l/m 0 min 2 min 5 W/m 18,8 km/h (3 Bft) 93,62 %
11.12.2016 07:06 8,1 C 7,8 C 6,1 C 92 % 15 lf 1018,7 hPa 0,0 l/m 0 min 2 min 5 W/m 23,0 km/h (4 Bft) 95,65 %
11.12.2016 07:08 8,1 C 7,8 C 6,1 C 92 % 15 lf 1018,6 hPa 0,0 l/m 0 min 0 min 5 W/m 18,8 km/h (3 Bft) 97,87 %
11.12.2016 07:10 8,1 C 7,8 C 6,1 C 93 % 15 lf 1018,7 hPa 0,0 l/m 0 min 0 min 5 W/m 23,0 km/h (4 Bft) 95,74 %
11.12.2016 07:12 8,1 C 7,8 C 6,1 C 92 % 15 lf 1018,7 hPa 0,0 l/m 0 min 2 min 5 W/m 20,9 km/h (4 Bft) 95,74 %
11.12.2016 07:14 8,1 C 7,2 C 6,1 C 93 % 15 lf 1018,7 hPa 0,0 l/m 0 min 2 min 5 W/m 23,0 km/h (4 Bft) 97,87 %
11.12.2016 07:16 8,0 C 7,2 C 6,1 C 93 % 15 lf 1018,7 hPa 0,0 l/m 0 min 0 min 5 W/m 16,7 km/h (3 Bft) 97,87 %
11.12.2016 07:18 8,0 C 7,2 C 6,1 C 93 % 15 lf 1018,6 hPa 0,0 l/m 0 min 0 min 5 W/m 16,7 km/h (3 Bft) 93,48 %
11.12.2016 07:20 8,0 C 7,2 C 5,6 C 93 % 15 lf 1018,6 hPa 0,0 l/m 0 min 0 min 5 W/m 23,0 km/h (4 Bft) 95,74 %
11.12.2016 07:22 7,9 C 7,2 C 5,6 C 93 % 15 lf 1018,7 hPa 0,0 l/m 0 min 0 min 5 W/m 23,0 km/h (4 Bft) 93,62 %
11.12.2016 07:24 7,9 C 7,2 C 5,6 C 93 % 15 lf 1018,8 hPa 0,0 l/m 0 min 0 min 5 W/m 20,9 km/h (4 Bft) 100,00 %
11.12.2016 07:26 7,9 C 7,2 C 5,6 C 93 % 15 lf 1018,8 hPa 0,0 l/m 0 min 0 min 5 W/m 23,0 km/h (4 Bft) 97,87 %
11.12.2016 07:28 7,8 C 7,2 C 5,6 C 93 % 15 lf 1018,8 hPa 0,0 l/m 0 min 0 min 5 W/m 23,0 km/h (4 Bft) 97,87 %
11.12.2016 07:30 7,8 C 7,2 C 5,6 C 93 % 15 lf 1018,9 hPa 0,0 l/m 0 min 0 min 5 W/m 16,7 km/h (3 Bft) 100,00 %
11.12.2016 07:32 7,8 C 7,2 C 5,6 C 93 % 15 lf 1018,8 hPa 0,0 l/m 0 min 0 min 5 W/m 10,5 km/h (2 Bft) 95,74 %
11.12.2016 07:34 7,8 C 7,2 C 5,6 C 93 % 15 lf 1018,8 hPa 0,0 l/m 0 min 0 min 5 W/m 20,9 km/h (4 Bft) 89,36 %
11.12.2016 07:36 7,7 C 7,2 C 5,6 C 93 % 15 lf 1018,9 hPa 0,0 l/m 0 min 0 min 5 W/m 20,9 km/h (4 Bft) 100,00 %
11.12.2016 07:38 7,7 C 7,2 C 5,6 C 93 % 15 lf 1018,9 hPa 0,0 l/m 0 min 0 min 5 W/m 25,1 km/h (4 Bft) 95,74 %
11.12.2016 07:40 7,7 C 7,2 C 5,6 C 93 % 15 lf 1018,9 hPa 0,0 l/m 0 min 0 min 5 W/m 14,6 km/h (3 Bft) 97,83 %
11.12.2016 07:42 7,7 C 7,8 C 5,6 C 94 % 15 lf 1018,9 hPa 0,0 l/m 0 min 0 min 5 W/m 18,8 km/h (3 Bft) 95,74 %
11.12.2016 07:44 7,7 C 7,8 C 6,1 C 94 % 15 lf 1018,9 hPa 0,0 l/m 0 min 0 min 5 W/m 20,9 km/h (4 Bft) 95,74 %
11.12.2016 07:46 7,7 C 7,8 C 6,1 C 94 % 15 lf 1018,9 hPa 0,0 l/m 0 min 0 min 5 W/m 23,0 km/h (4 Bft) 97,87 %
11.12.2016 07:48 7,7 C 7,8 C 6,1 C 94 % 15 lf 1018,9 hPa 0,0 l/m 0 min 0 min 5 W/m 18,8 km/h (3 Bft) 95,74 %
11.12.2016 07:50 7,7 C 7,8 C 6,1 C 94 % 15 lf 1019,0 hPa 0,0 l/m 0 min 0 min 5 W/m 20,9 km/h (4 Bft) 91,49 %
11.12.2016 07:52 7,7 C 7,8 C 6,1 C 94 % 15 lf 1019,0 hPa 0,0 l/m 0 min 0 min 5 W/m 14,6 km/h (3 Bft) 95,65 %
11.12.2016 07:54 7,7 C 7,8 C 6,1 C 94 % 15 lf 1019,0 hPa 0,0 l/m 0 min 0 min 5 W/m 18,8 km/h (3 Bft) 97,87 %
11.12.2016 07:56 7,7 C 7,8 C 6,1 C 94 % 15 lf 1019,1 hPa 0,0 l/m 0 min 0 min 5 W/m 16,7 km/h (3 Bft) 95,74 %
11.12.2016 07:58 7,7 C 7,8 C 6,1 C 94 % 14 lf 1019,0 hPa 0,0 l/m 0 min 0 min 5 W/m 16,7 km/h (3 Bft) 97,87 %
11.12.2016 08:00 7,7 C 7,8 C 6,1 C 94 % 14 lf 1019,0 hPa 0,0 l/m 0 min 0 min 5 W/m 14,6 km/h (3 Bft) 95,74 %
11.12.2016 08:02 7,7 C 7,8 C 6,1 C 94 % 13 lf 1018,9 hPa 0,0 l/m 0 min 0 min 5 W/m 18,8 km/h (3 Bft) 95,74 %
11.12.2016 08:04 7,7 C 7,8 C 6,1 C 94 % 12 lf 1019,1 hPa 0,0 l/m 0 min 0 min 5 W/m 16,7 km/h (3 Bft) 93,48 %
11.12.2016 08:06 7,7 C 7,8 C 6,1 C 94 % 9 lf 1019,0 hPa 0,0 l/m 0 min 0 min 5 W/m 14,6 km/h (3 Bft) 93,62 %
11.12.2016 08:08 7,7 C 7,8 C 6,1 C 94 % 5 lf 1019,1 hPa 0,0 l/m 0 min 0 min 5 W/m 14,6 km/h (3 Bft) 95,74 %
11.12.2016 08:10 7,7 C 7,8 C 6,1 C 94 % 4 lf 1019,1 hPa 0,0 l/m 0 min 0 min 5 W/m 18,8 km/h (3 Bft) 95,74 %
11.12.2016 08:12 7,7 C 7,8 C 6,1 C 94 % 2 lf 1019,2 hPa 0,0 l/m 0 min 0 min 5 W/m 18,8 km/h (3 Bft) 91,49 %
11.12.2016 08:14 7,7 C 7,8 C 6,1 C 94 % 2 lf 1019,1 hPa 0,0 l/m 0 min 0 min 5 W/m 12,6 km/h (3 Bft) 95,74 %
11.12.2016 08:16 7,7 C 7,8 C 6,1 C 94 % 1 lf 1019,1 hPa 0,0 l/m 0 min 0 min 5 W/m 16,7 km/h (3 Bft) 93,48 %
11.12.2016 08:18 7,7 C 7,8 C 6,1 C 94 % 0 lf 1019,1 hPa 0,0 l/m 0 min 0 min 5 W/m 12,6 km/h (3 Bft) 95,74 %
11.12.2016 08:20 7,7 C 7,8 C 6,1 C 94 % 0 lf 1019,2 hPa 0,0 l/m 0 min 0 min 5 W/m 14,6 km/h (3 Bft) 95,74 %
11.12.2016 08:22 7,7 C 7,8 C 6,1 C 94 % 0 lf 1019,2 hPa 0,0 l/m 0 min 0 min 5 W/m 16,7 km/h (3 Bft) 97,87 %
11.12.2016 08:24 7,7 C 7,8 C 6,1 C 94 % 0 lf 1019,2 hPa 0,0 l/m 0 min 0 min 5 W/m 16,7 km/h (3 Bft) 93,62 %
11.12.2016 08:26 7,7 C 7,8 C 6,1 C 94 % 0 lf 1019,1 hPa 0,0 l/m 0 min 0 min 6 W/m 14,6 km/h (3 Bft) 95,74 %
11.12.2016 08:28 7,7 C 7,8 C 6,1 C 94 % 0 lf 1019,1 hPa 0,0 l/m 0 min 0 min 7 W/m 18,8 km/h (3 Bft) 93,48 %
11.12.2016 08:30 7,7 C 7,8 C 6,1 C 94 % 0 lf 1019,2 hPa 0,0 l/m 0 min 0 min 7 W/m 14,6 km/h (3 Bft) 100,00 %
11.12.2016 08:32 7,7 C 7,8 C 6,1 C 94 % 0 lf 1019,2 hPa 0,0 l/m 0 min 0 min 7 W/m 14,6 km/h (3 Bft) 100,00 %
11.12.2016 08:34 7,7 C 7,8 C 6,1 C 94 % 0 lf 1019,2 hPa 0,0 l/m 0 min 0 min 7 W/m 18,8 km/h (3 Bft) 97,87 %
11.12.2016 08:36 7,7 C 7,8 C 6,1 C 94 % 1 lf 1019,2 hPa 0,0 l/m 0 min 2 min 6 W/m 18,8 km/h (3 Bft) 97,87 %
11.12.2016 08:38 7,7 C 7,8 C 6,1 C 94 % 1 lf 1019,2 hPa 0,0 l/m 0 min 0 min 5 W/m 20,9 km/h (4 Bft) 100,00 %
11.12.2016 08:40 7,7 C 7,8 C 6,1 C 94 % 1 lf 1019,2 hPa 0,0 l/m 0 min 0 min 6 W/m 12,6 km/h (3 Bft) 100,00 %
11.12.2016 08:42 7,7 C 7,8 C 6,1 C 94 % 0 lf 1019,2 hPa 0,0 l/m 0 min 0 min 7 W/m 16,7 km/h (3 Bft) 100,00 %
11.12.2016 08:44 7,7 C 7,8 C 6,1 C 94 % 0 lf 1019,2 hPa 0,0 l/m 0 min 0 min 7 W/m 14,6 km/h (3 Bft) 97,87 %
11.12.2016 08:46 7,7 C 7,8 C 6,1 C 94 % 0 lf 1019,2 hPa 0,0 l/m 0 min 0 min 8 W/m 18,8 km/h (3 Bft) 100,00 %
11.12.2016 08:48 7,7 C 7,8 C 6,1 C 94 % 0 lf 1019,2 hPa 0,0 l/m 0 min 0 min 9 W/m 16,7 km/h (3 Bft) 100,00 %
11.12.2016 08:50 7,7 C 7,8 C 6,1 C 94 % 0 lf 1019,3 hPa 0,0 l/m 0 min 0 min 9 W/m 18,8 km/h (3 Bft) 100,00 %
11.12.2016 08:52 7,7 C 7,8 C 6,1 C 94 % 0 lf 1019,2 hPa 0,0 l/m 0 min 0 min 10 W/m 16,7 km/h (3 Bft) 97,87 %
11.12.2016 08:54 7,7 C 7,8 C 6,1 C 94 % 0 lf 1019,3 hPa 0,0 l/m 0 min 0 min 11 W/m 16,7 km/h (3 Bft) 100,00 %
11.12.2016 08:56 7,7 C 7,8 C 6,1 C 94 % 0 lf 1019,4 hPa 0,0 l/m 0 min 0 min 12 W/m 18,8 km/h (3 Bft) 100,00 %
11.12.2016 08:58 7,7 C 7,8 C 6,1 C 94 % 0 lf 1019,4 hPa 0,0 l/m 0 min 0 min 14 W/m 14,6 km/h (3 Bft) 97,87 %
11.12.2016 09:00 7,7 C 7,8 C 6,1 C 94 % 0 lf 1019,4 hPa 0,0 l/m 0 min 0 min 16 W/m 12,6 km/h (3 Bft) 97,87 %
11.12.2016 09:02 7,7 C 7,8 C 6,1 C 94 % 0 lf 1019,4 hPa 0,0 l/m 0 min 0 min 18 W/m 18,8 km/h (3 Bft) 100,00 %
11.12.2016 09:04 7,7 C 7,8 C 6,1 C 94 % 0 lf 1019,5 hPa 0,0 l/m 0 min 0 min 20 W/m 16,7 km/h (3 Bft) 100,00 %
11.12.2016 09:06 7,7 C 7,8 C 6,1 C 94 % 0 lf 1019,5 hPa 0,0 l/m 0 min 0 min 21 W/m 16,7 km/h (3 Bft) 100,00 %
11.12.2016 09:08 7,7 C 7,8 C 6,1 C 94 % 0 lf 1019,5 hPa 0,0 l/m 0 min 0 min 22 W/m 18,8 km/h (3 Bft) 97,87 %
11.12.2016 09:10 7,7 C 7,8 C 6,1 C 94 % 0 lf 1019,5 hPa 0,0 l/m 0 min 0 min 24 W/m 23,0 km/h (4 Bft) 97,87 %
11.12.2016 09:12 7,7 C 7,8 C 6,1 C 94 % 0 lf 1019,5 hPa 0,0 l/m 0 min 0 min 22 W/m 25,1 km/h (4 Bft) 100,00 %
11.12.2016 09:14 7,7 C 7,8 C 6,7 C 94 % 0 lf 1019,7 hPa 0,0 l/m 0 min 0 min 19 W/m 35,6 km/h (5 Bft) 100,00 %
11.12.2016 09:16 7,7 C 7,8 C 6,7 C 94 % 0 lf 1019,7 hPa 0,0 l/m 0 min 0 min 22 W/m 23,0 km/h (4 Bft) 95,74 %
11.12.2016 09:18 7,7 C 7,8 C 6,7 C 94 % 0 lf 1019,7 hPa 0,0 l/m 0 min 0 min 25 W/m 20,9 km/h (4 Bft) 97,87 %
11.12.2016 09:20 7,7 C 8,3 C 6,7 C 94 % 0 lf 1019,7 hPa 0,0 l/m 0 min 0 min 25 W/m 18,8 km/h (3 Bft) 95,74 %
11.12.2016 09:22 7,7 C 8,3 C 6,7 C 94 % 0 lf 1019,7 hPa 0,0 l/m 0 min 0 min 25 W/m 14,6 km/h (3 Bft) 100,00 %
11.12.2016 09:24 7,7 C 8,3 C 6,7 C 95 % 0 lf 1019,7 hPa 0,0 l/m 0 min 0 min 25 W/m 20,9 km/h (4 Bft) 97,87 %
11.12.2016 09:26 7,7 C 8,3 C 6,7 C 95 % 0 lf 1019,8 hPa 0,0 l/m 0 min 0 min 23 W/m 25,1 km/h (4 Bft) 100,00 %
11.12.2016 09:28 7,7 C 8,3 C 6,7 C 95 % 0 lf 1019,8 hPa 0,0 l/m 0 min 0 min 21 W/m 25,1 km/h (4 Bft) 100,00 %
11.12.2016 09:30 7,7 C 8,3 C 6,7 C 95 % 0 lf 1019,9 hPa 0,0 l/m 0 min 0 min 18 W/m 18,8 km/h (3 Bft) 100,00 %
11.12.2016 09:32 7,7 C 8,3 C 6,7 C 95 % 0 lf 1019,8 hPa 0,0 l/m 0 min 0 min 15 W/m 25,1 km/h (4 Bft) 97,87 %
11.12.2016 09:34 7,8 C 8,3 C 6,7 C 95 % 0 lf 1019,8 hPa 0,0 l/m 0 min 0 min 14 W/m 20,9 km/h (4 Bft) 95,74 %
11.12.2016 09:36 7,8 C 8,3 C 6,7 C 95 % 0 lf 1019,9 hPa 0,0 l/m 0 min 0 min 15 W/m 16,7 km/h (3 Bft) 97,87 %
11.12.2016 09:38 7,8 C 8,3 C 6,7 C 95 % 0 lf 1019,9 hPa 0,0 l/m 0 min 0 min 18 W/m 16,7 km/h (3 Bft) 97,83 %
11.12.2016 09:40 7,8 C 8,3 C 6,7 C 95 % 0 lf 1020,0 hPa 0,0 l/m 0 min 0 min 21 W/m 18,8 km/h (3 Bft) 97,87 %
11.12.2016 09:42 7,8 C 8,3 C 6,7 C 95 % 0 lf 1020,1 hPa 0,0 l/m 0 min 0 min 20 W/m 16,7 km/h (3 Bft) 97,87 %
11.12.2016 09:44 7,8 C 8,3 C 6,7 C 95 % 0 lf 1020,1 hPa 0,0 l/m 0 min 0 min 22 W/m 20,9 km/h (4 Bft) 97,87 %
11.12.2016 09:46 7,8 C 8,3 C 6,7 C 95 % 0 lf 1020,2 hPa 0,0 l/m 0 min 0 min 28 W/m 25,1 km/h (4 Bft) 93,62 %
11.12.2016 09:48 7,8 C 8,3 C 6,7 C 95 % 0 lf 1020,2 hPa 0,0 l/m 0 min 0 min 40 W/m 20,9 km/h (4 Bft) 97,87 %
11.12.2016 09:50 7,8 C 8,3 C 6,7 C 94 % 0 lf 1020,3 hPa 0,0 l/m 0 min 0 min 40 W/m 20,9 km/h (4 Bft) 95,65 %
11.12.2016 09:52 7,8 C 8,3 C 6,7 C 94 % 0 lf 1020,2 hPa 0,0 l/m 0 min 0 min 34 W/m 20,9 km/h (4 Bft) 93,62 %
11.12.2016 09:54 7,8 C 8,3 C 6,7 C 94 % 0 lf 1020,2 hPa 0,0 l/m 0 min 0 min 36 W/m 18,8 km/h (3 Bft) 95,74 %
11.12.2016 09:56 7,8 C 8,3 C 6,7 C 94 % 0 lf 1020,2 hPa 0,0 l/m 0 min 0 min 46 W/m 18,8 km/h (3 Bft) 95,74 %
11.12.2016 09:58 7,8 C 8,3 C 6,7 C 94 % 0 lf 1020,3 hPa 0,0 l/m 0 min 0 min 57 W/m 23,0 km/h (4 Bft) 93,62 %
11.12.2016 10:00 7,8 C 8,3 C 6,7 C 94 % 0 lf 1020,2 hPa 0,0 l/m 0 min 0 min 65 W/m 25,1 km/h (4 Bft) 95,65 %
11.12.2016 10:02 7,8 C 8,3 C 6,7 C 94 % 0 lf 1020,3 hPa 0,0 l/m 0 min 0 min 74 W/m 27,2 km/h (4 Bft) 95,74 %
11.12.2016 10:04 7,8 C 8,9 C 6,7 C 94 % 0 lf 1020,3 hPa 0,0 l/m 0 min 0 min 80 W/m 16,7 km/h (3 Bft) 95,74 %
11.12.2016 10:06 7,8 C 8,9 C 6,7 C 94 % 0 lf 1020,4 hPa 0,0 l/m 0 min 0 min 78 W/m 29,3 km/h (5 Bft) 93,62 %
11.12.2016 10:08 7,8 C 8,9 C 6,7 C 94 % 0 lf 1020,4 hPa 0,0 l/m 0 min 0 min 76 W/m 25,1 km/h (4 Bft) 89,36 %
11.12.2016 10:10 7,8 C 8,9 C 6,7 C 94 % 0 lf 1020,5 hPa 0,0 l/m 0 min 0 min 78 W/m 23,0 km/h (4 Bft) 93,62 %
11.12.2016 10:12 7,9 C 8,9 C 6,7 C 94 % 0 lf 1020,5 hPa 0,0 l/m 2 min 0 min 100 W/m 25,1 km/h (4 Bft) 86,96 %
11.12.2016 10:14 7,9 C 8,9 C 7,2 C 94 % 0 lf 1020,5 hPa 0,0 l/m 2 min 0 min 114 W/m 14,6 km/h (3 Bft) 93,62 %
11.12.2016 10:16 7,9 C 8,9 C 7,2 C 94 % 0 lf 1020,5 hPa 0,0 l/m 2 min 0 min 114 W/m 25,1 km/h (4 Bft) 89,36 %
11.12.2016 10:18 7,9 C 9,4 C 7,2 C 94 % 0 lf 1020,5 hPa 0,0 l/m 2 min 0 min 111 W/m 23,0 km/h (4 Bft) 91,49 %
11.12.2016 10:20 7,9 C 9,4 C 7,2 C 94 % 0 lf 1020,6 hPa 0,0 l/m 2 min 0 min 122 W/m 23,0 km/h (4 Bft) 91,49 %
11.12.2016 10:22 7,9 C 9,4 C 7,2 C 94 % 0 lf 1020,6 hPa 0,0 l/m 2 min 0 min 130 W/m 29,3 km/h (5 Bft) 91,49 %
11.12.2016 10:24 7,9 C 9,4 C 7,2 C 94 % 0 lf 1020,6 hPa 0,0 l/m 2 min 0 min 129 W/m 27,2 km/h (4 Bft) 91,30 %
11.12.2016 10:26 7,9 C 9,4 C 7,2 C 94 % 0 lf 1020,6 hPa 0,0 l/m 2 min 0 min 124 W/m 20,9 km/h (4 Bft) 91,49 %
11.12.2016 10:28 8,0 C 9,4 C 7,2 C 94 % 0 lf 1020,6 hPa 0,0 l/m 2 min 0 min 123 W/m 16,7 km/h (3 Bft) 91,49 %
11.12.2016 10:30 8,0 C 9,4 C 7,2 C 94 % 0 lf 1020,6 hPa 0,0 l/m 2 min 0 min 130 W/m 25,1 km/h (4 Bft) 95,74 %
11.12.2016 10:32 8,0 C 9,4 C 7,2 C 94 % 0 lf 1020,7 hPa 0,0 l/m 2 min 0 min 154 W/m 35,6 km/h (5 Bft) 95,74 %
11.12.2016 10:34 8,1 C 9,4 C 7,2 C 93 % 0 lf 1020,6 hPa 0,0 l/m 2 min 0 min 145 W/m 27,2 km/h (4 Bft) 91,49 %
11.12.2016 10:36 8,1 C 9,4 C 7,2 C 93 % 0 lf 1020,6 hPa 0,0 l/m 2 min 0 min 171 W/m 23,0 km/h (4 Bft) 95,65 %
11.12.2016 10:38 8,1 C 10,0 C 7,8 C 93 % 0 lf 1020,6 hPa 0,0 l/m 2 min 0 min 211 W/m 33,5 km/h (5 Bft) 89,36 %
11.12.2016 10:40 8,2 C 10,0 C 7,8 C 93 % 0 lf 1020,6 hPa 0,0 l/m 2 min 0 min 143 W/m 20,9 km/h (4 Bft) 93,62 %
11.12.2016 10:42 8,2 C 9,4 C 7,8 C 93 % 0 lf 1020,7 hPa 0,0 l/m 0 min 0 min 94 W/m 16,7 km/h (3 Bft) 93,62 %
11.12.2016 10:44 8,2 C 9,4 C 7,2 C 93 % 0 lf 1020,7 hPa 0,0 l/m 0 min 0 min 75 W/m 18,8 km/h (3 Bft) 95,74 %
11.12.2016 10:46 8,2 C 9,4 C 7,2 C 93 % 0 lf 1020,7 hPa 0,0 l/m 0 min 0 min 59 W/m 18,8 km/h (3 Bft) 95,74 %
11.12.2016 10:48 8,2 C 8,9 C 7,2 C 93 % 0 lf 1020,7 hPa 0,0 l/m 0 min 0 min 50 W/m 18,8 km/h (3 Bft) 93,48 %
11.12.2016 10:50 8,2 C 8,9 C 7,2 C 93 % 0 lf 1020,7 hPa 0,0 l/m 0 min 0 min 52 W/m 20,9 km/h (4 Bft) 97,87 %
11.12.2016 10:52 8,2 C 8,9 C 7,2 C 93 % 0 lf 1020,7 hPa 0,0 l/m 0 min 0 min 60 W/m 25,1 km/h (4 Bft) 93,62 %
11.12.2016 10:54 8,2 C 8,9 C 7,2 C 93 % 0 lf 1020,7 hPa 0,0 l/m 0 min 0 min 70 W/m 27,2 km/h (4 Bft) 95,74 %
11.12.2016 10:56 8,2 C 8,9 C 7,2 C 93 % 0 lf 1020,7 hPa 0,0 l/m 0 min 0 min 88 W/m 18,8 km/h (3 Bft) 93,62 %
11.12.2016 10:58 8,3 C 8,9 C 7,2 C 93 % 0 lf 1020,7 hPa 0,0 l/m 0 min 0 min 79 W/m 25,1 km/h (4 Bft) 91,49 %
11.12.2016 11:00 8,3 C 8,9 C 7,2 C 92 % 0 lf 1020,7 hPa 0,0 l/m 0 min 0 min 67 W/m 25,1 km/h (4 Bft) 95,65 %
11.12.2016 11:02 8,3 C 8,9 C 7,2 C 92 % 0 lf 1020,7 hPa 0,0 l/m 0 min 0 min 60 W/m 16,7 km/h (3 Bft) 95,74 %
11.12.2016 11:04 8,3 C 8,9 C 7,2 C 92 % 0 lf 1020,7 hPa 0,0 l/m 0 min 0 min 59 W/m 23,0 km/h (4 Bft) 95,74 %
11.12.2016 11:06 8,3 C 8,9 C 7,2 C 92 % 0 lf 1020,7 hPa 0,0 l/m 0 min 0 min 37 W/m 23,0 km/h (4 Bft) 100,00 %
11.12.2016 11:08 8,3 C 8,9 C 7,2 C 92 % 0 lf 1020,7 hPa 0,0 l/m 0 min 0 min 30 W/m 18,8 km/h (3 Bft) 93,62 %
11.12.2016 11:10 8,3 C 8,9 C 7,2 C 92 % 0 lf 1020,7 hPa 0,0 l/m 0 min 0 min 34 W/m 20,9 km/h (4 Bft) 97,83 %
11.12.2016 11:12 8,3 C 8,9 C 7,2 C 92 % 0 lf 1020,7 hPa 0,0 l/m 0 min 0 min 43 W/m 20,9 km/h (4 Bft) 100,00 %
11.12.2016 11:14 8,2 C 8,9 C 7,2 C 92 % 1 lf 1020,6 hPa 0,0 l/m 0 min 0 min 44 W/m 16,7 km/h (3 Bft) 95,74 %
11.12.2016 11:16 8,3 C 8,3 C 7,2 C 92 % 4 lf 1020,6 hPa 0,0 l/m 0 min 2 min 46 W/m 20,9 km/h (4 Bft) 97,87 %
11.12.2016 11:18 8,2 C 8,3 C 7,2 C 92 % 3 lf 1020,6 hPa 0,0 l/m 0 min 2 min 62 W/m 23,0 km/h (4 Bft) 95,74 %
11.12.2016 11:20 8,2 C 8,9 C 7,2 C 92 % 1 lf 1020,6 hPa 0,0 l/m 0 min 0 min 70 W/m 23,0 km/h (4 Bft) 95,74 %
11.12.2016 11:22 8,2 C 8,9 C 7,2 C 92 % 0 lf 1020,7 hPa 0,0 l/m 0 min 0 min 66 W/m 16,7 km/h (3 Bft) 100,00 %
11.12.2016 11:24 8,2 C 8,9 C 7,2 C 92 % 0 lf 1020,7 hPa 0,0 l/m 0 min 0 min 63 W/m 23,0 km/h (4 Bft) 97,87 %
11.12.2016 11:26 8,2 C 8,9 C 7,2 C 92 % 0 lf 1020,7 hPa 0,0 l/m 0 min 0 min 57 W/m 23,0 km/h (4 Bft) 97,87 %
11.12.2016 11:28 8,3 C 8,9 C 7,2 C 92 % 0 lf 1020,7 hPa 0,0 l/m 0 min 0 min 46 W/m 20,9 km/h (4 Bft) 97,87 %
11.12.2016 11:30 8,2 C 8,9 C 7,2 C 92 % 0 lf 1020,7 hPa 0,0 l/m 0 min 0 min 37 W/m 20,9 km/h (4 Bft) 97,87 %
11.12.2016 11:32 8,2 C 8,9 C 7,2 C 92 % 0 lf 1020,7 hPa 0,0 l/m 0 min 0 min 42 W/m 23,0 km/h (4 Bft) 97,87 %
11.12.2016 11:34 8,2 C 8,9 C 7,2 C 92 % 0 lf 1020,7 hPa 0,0 l/m 0 min 0 min 39 W/m 18,8 km/h (3 Bft) 95,65 %
11.12.2016 11:36 8,2 C 8,9 C 7,2 C 92 % 0 lf 1020,7 hPa 0,0 l/m 0 min 0 min 41 W/m 23,0 km/h (4 Bft) 100,00 %
11.12.2016 11:38 8,2 C 8,9 C 7,2 C 92 % 0 lf 1020,7 hPa 0,0 l/m 0 min 0 min 47 W/m 20,9 km/h (4 Bft) 100,00 %
11.12.2016 11:40 8,2 C 8,9 C 7,2 C 92 % 0 lf 1020,7 hPa 0,0 l/m 0 min 0 min 72 W/m 23,0 km/h (4 Bft) 100,00 %
11.12.2016 11:42 8,2 C 8,9 C 7,8 C 92 % 0 lf 1020,6 hPa 0,0 l/m 0 min 0 min 82 W/m 16,7 km/h (3 Bft) 97,83 %
11.12.2016 11:44 8,3 C 8,9 C 7,8 C 92 % 0 lf 1020,6 hPa 0,0 l/m 0 min 0 min 76 W/m 23,0 km/h (4 Bft) 97,87 %
11.12.2016 11:46 8,3 C 8,9 C 7,8 C 92 % 0 lf 1020,7 hPa 0,0 l/m 0 min 0 min 78 W/m 18,8 km/h (3 Bft) 97,87 %
11.12.2016 11:48 8,3 C 8,9 C 7,8 C 92 % 0 lf 1020,6 hPa 0,0 l/m 0 min 0 min 82 W/m 16,7 km/h (3 Bft) 97,87 %
11.12.2016 11:50 8,3 C 9,4 C 7,8 C 92 % 0 lf 1020,6 hPa 0,0 l/m 0 min 0 min 78 W/m 16,7 km/h (3 Bft) 91,38 %
11.12.2016 11:52 8,3 C 9,4 C 7,8 C 92 % 0 lf 1020,6 hPa 0,0 l/m 0 min 0 min 84 W/m 29,3 km/h (5 Bft) 97,22 %
11.12.2016 11:54 8,3 C 9,4 C 7,8 C 92 % 0 lf 1020,6 hPa 0,0 l/m 0 min 0 min 75 W/m 25,1 km/h (4 Bft) 97,83 %
11.12.2016 11:56 8,3 C 8,9 C 7,8 C 92 % 0 lf 1020,7 hPa 0,0 l/m 0 min 0 min 70 W/m 18,8 km/h (3 Bft) 95,74 %
11.12.2016 11:58 8,3 C 9,4 C 7,8 C 92 % 0 lf 1020,6 hPa 0,0 l/m 0 min 0 min 74 W/m 16,7 km/h (3 Bft) 91,49 %
11.12.2016 12:00 8,4 C 8,9 C 7,8 C 92 % 0 lf 1020,6 hPa 0,0 l/m 0 min 0 min 59 W/m 25,1 km/h (4 Bft) 97,87 %
11.12.2016 12:02 8,4 C 9,4 C 7,8 C 92 % 0 lf 1020,6 hPa 0,0 l/m 0 min 0 min 81 W/m 18,8 km/h (3 Bft) 93,62 %
11.12.2016 12:06 8,4 C 9,4 C 7,8 C 92 % 0 lf 1020,7 hPa 0,0 l/m 0 min 0 min 87 W/m 31,4 km/h (5 Bft) 95,74 %
11.12.2016 12:08 8,4 C 9,4 C 7,8 C 92 % 0 lf 1020,7 hPa 0,0 l/m 0 min 0 min 76 W/m 25,1 km/h (4 Bft) 97,87 %
11.12.2016 12:10 8,4 C 9,4 C 7,8 C 92 % 0 lf 1020,7 hPa 0,0 l/m 0 min 0 min 70 W/m 16,7 km/h (3 Bft) 95,74 %
11.12.2016 12:12 8,4 C 9,4 C 7,8 C 92 % 0 lf 1020,7 hPa 0,0 l/m 0 min 0 min 54 W/m 18,8 km/h (3 Bft) 97,87 %
11.12.2016 12:14 8,4 C 9,4 C 7,8 C 92 % 0 lf 1020,7 hPa 0,0 l/m 0 min 0 min 83 W/m 16,7 km/h (3 Bft) 97,87 %
11.12.2016 12:16 8,4 C 9,4 C 7,8 C 92 % 0 lf 1020,7 hPa 0,0 l/m 0 min 0 min 110 W/m 20,9 km/h (4 Bft) 100,00 %
11.12.2016 12:18 8,4 C 9,4 C 7,8 C 92 % 0 lf 1020,7 hPa 0,0 l/m 0 min 0 min 64 W/m 18,8 km/h (3 Bft) 95,74 %
11.12.2016 12:20 8,4 C 9,4 C 7,8 C 92 % 0 lf 1020,7 hPa 0,0 l/m 0 min 0 min 68 W/m 20,9 km/h (4 Bft) 100,00 %
11.12.2016 12:22 8,5 C 9,4 C 7,8 C 92 % 0 lf 1020,7 hPa 0,0 l/m 0 min 0 min 75 W/m 16,7 km/h (3 Bft) 97,87 %
11.12.2016 12:24 8,5 C 9,4 C 7,8 C 92 % 0 lf 1020,8 hPa 0,0 l/m 0 min 0 min 101 W/m 20,9 km/h (4 Bft) 95,74 %
11.12.2016 12:26 8,5 C 10,0 C 7,8 C 92 % 0 lf 1020,7 hPa 0,0 l/m 0 min 0 min 115 W/m 18,8 km/h (3 Bft) 100,00 %
11.12.2016 12:28 8,5 C 10,0 C 8,3 C 92 % 0 lf 1020,7 hPa 0,0 l/m 0 min 0 min 149 W/m 25,1 km/h (4 Bft) 100,00 %
11.12.2016 12:30 8,6 C 10,0 C 8,3 C 92 % 0 lf 1020,7 hPa 0,0 l/m 2 min 0 min 174 W/m 23,0 km/h (4 Bft) 100,00 %
11.12.2016 12:32 8,6 C 10,0 C 8,3 C 92 % 0 lf 1020,7 hPa 0,0 l/m 0 min 0 min 141 W/m 18,8 km/h (3 Bft) 97,87 %
11.12.2016 12:34 8,6 C 10,0 C 8,3 C 92 % 0 lf 1020,7 hPa 0,0 l/m 0 min 0 min 82 W/m 18,8 km/h (3 Bft) 100,00 %
11.12.2016 12:36 8,6 C 10,0 C 8,3 C 92 % 0 lf 1020,6 hPa 0,0 l/m 0 min 0 min 54 W/m 16,7 km/h (3 Bft) 95,74 %
11.12.2016 12:38 8,6 C 9,4 C 7,8 C 92 % 0 lf 1020,7 hPa 0,0 l/m 0 min 0 min 54 W/m 25,1 km/h (4 Bft) 97,87 %
11.12.2016 12:40 8,7 C 9,4 C 7,8 C 92 % 0 lf 1020,7 hPa 0,0 l/m 0 min 0 min 54 W/m 20,9 km/h (4 Bft) 91,30 %
11.12.2016 12:42 8,7 C 9,4 C 7,8 C 92 % 0 lf 1020,7 hPa 0,0 l/m 0 min 0 min 47 W/m 14,6 km/h (3 Bft) 95,74 %
11.12.2016 12:44 8,6 C 9,4 C 7,8 C 92 % 0 lf 1020,7 hPa 0,0 l/m 0 min 0 min 42 W/m 16,7 km/h (3 Bft) 95,74 %
11.12.2016 12:46 8,6 C 8,9 C 7,8 C 91 % 0 lf 1020,7 hPa 0,0 l/m 0 min 0 min 32 W/m 18,8 km/h (3 Bft) 97,87 %
11.12.2016 12:48 8,6 C 8,9 C 7,8 C 91 % 0 lf 1020,7 hPa 0,0 l/m 0 min 0 min 44 W/m 25,1 km/h (4 Bft) 93,62 %
11.12.2016 12:50 8,6 C 8,9 C 7,8 C 91 % 0 lf 1020,7 hPa 0,0 l/m 0 min 0 min 58 W/m 16,7 km/h (3 Bft) 97,87 %
11.12.2016 12:52 8,6 C 8,9 C 7,8 C 91 % 0 lf 1020,7 hPa 0,0 l/m 0 min 0 min 51 W/m 20,9 km/h (4 Bft) 95,65 %
11.12.2016 12:54 8,6 C 9,4 C 7,8 C 91 % 0 lf 1020,7 hPa 0,0 l/m 0 min 0 min 87 W/m 20,9 km/h (4 Bft) 95,74 %
11.12.2016 12:56 8,6 C 9,4 C 7,8 C 91 % 0 lf 1020,7 hPa 0,0 l/m 0 min 0 min 99 W/m 27,2 km/h (4 Bft) 95,74 %
11.12.2016 12:58 8,6 C 9,4 C 7,8 C 91 % 0 lf 1020,8 hPa 0,0 l/m 0 min 0 min 116 W/m 23,0 km/h (4 Bft) 93,62 %
11.12.2016 13:00 8,6 C 10,0 C 7,8 C 91 % 0 lf 1020,7 hPa 0,0 l/m 0 min 0 min 113 W/m 23,0 km/h (4 Bft) 95,74 %
11.12.2016 13:02 8,6 C 10,0 C 7,8 C 91 % 0 lf 1020,7 hPa 0,0 l/m 2 min 0 min 149 W/m 23,0 km/h (4 Bft) 95,74 %
11.12.2016 13:04 8,6 C 10,0 C 8,3 C 91 % 0 lf 1020,7 hPa 0,0 l/m 0 min 0 min 120 W/m 23,0 km/h (4 Bft) 95,65 %
11.12.2016 13:06 8,6 C 10,0 C 7,8 C 91 % 0 lf 1020,7 hPa 0,0 l/m 0 min 0 min 90 W/m 23,0 km/h (4 Bft) 93,62 %
11.12.2016 13:08 8,6 C 10,6 C 7,8 C 91 % 0 lf 1020,7 hPa 0,0 l/m 2 min 0 min 159 W/m 14,6 km/h (3 Bft) 93,62 %
11.12.2016 13:10 8,7 C 10,0 C 7,8 C 91 % 0 lf 1020,7 hPa 0,0 l/m 0 min 0 min 142 W/m 20,9 km/h (4 Bft) 95,74 %
11.12.2016 13:12 8,7 C 10,6 C 8,3 C 91 % 0 lf 1020,7 hPa 0,0 l/m 2 min 0 min 146 W/m 12,6 km/h (3 Bft) 93,62 %
11.12.2016 13:14 8,7 C 10,0 C 8,3 C 91 % 0 lf 1020,8 hPa 0,0 l/m 0 min 0 min 112 W/m 12,6 km/h (3 Bft) 93,62 %
11.12.2016 13:16 8,7 C 10,0 C 8,3 C 91 % 0 lf 1020,8 hPa 0,0 l/m 0 min 0 min 94 W/m 16,7 km/h (3 Bft) 95,65 %
11.12.2016 13:18 8,7 C 10,0 C 8,3 C 91 % 0 lf 1020,7 hPa 0,0 l/m 0 min 0 min 144 W/m 23,0 km/h (4 Bft) 93,62 %
11.12.2016 13:20 8,7 C 10,6 C 8,3 C 91 % 0 lf 1020,7 hPa 0,0 l/m 2 min 0 min 153 W/m 18,8 km/h (3 Bft) 93,62 %
11.12.2016 13:22 8,8 C 10,6 C 8,3 C 90 % 0 lf 1020,7 hPa 0,0 l/m 0 min 0 min 102 W/m 12,6 km/h (3 Bft) 95,74 %
11.12.2016 13:24 8,8 C 10,6 C 8,3 C 91 % 0 lf 1020,7 hPa 0,0 l/m 0 min 0 min 121 W/m 18,8 km/h (3 Bft) 95,74 %
11.12.2016 13:26 8,8 C 10,6 C 8,3 C 90 % 0 lf 1020,7 hPa 0,0 l/m 2 min 0 min 166 W/m 18,8 km/h (3 Bft) 97,87 %
11.12.2016 13:28 8,8 C 11,1 C 8,9 C 90 % 0 lf 1020,7 hPa 0,0 l/m 2 min 0 min 238 W/m 20,9 km/h (4 Bft) 95,65 %
11.12.2016 13:30 8,8 C 10,6 C 8,9 C 90 % 0 lf 1020,7 hPa 0,0 l/m 0 min 0 min 122 W/m 16,7 km/h (3 Bft) 93,62 %
11.12.2016 13:32 8,9 C 10,6 C 8,9 C 90 % 0 lf 1020,8 hPa 0,0 l/m 0 min 0 min 96 W/m 16,7 km/h (3 Bft) 93,62 %
11.12.2016 13:34 8,9 C 10,0 C 8,3 C 90 % 0 lf 1020,8 hPa 0,0 l/m 0 min 0 min 94 W/m 23,0 km/h (4 Bft) 95,74 %
11.12.2016 13:36 8,9 C 10,0 C 8,3 C 90 % 0 lf 1020,8 hPa 0,0 l/m 0 min 0 min 85 W/m 14,6 km/h (3 Bft) 95,74 %
11.12.2016 13:38 8,9 C 10,0 C 8,3 C 90 % 0 lf 1020,8 hPa 0,0 l/m 0 min 0 min 94 W/m 18,8 km/h (3 Bft) 97,83 %
11.12.2016 13:40 8,9 C 10,0 C 8,9 C 90 % 0 lf 1020,8 hPa 0,0 l/m 2 min 0 min 141 W/m 18,8 km/h (3 Bft) 97,87 %
11.12.2016 13:42 8,9 C 10,0 C 8,9 C 90 % 0 lf 1020,8 hPa 0,0 l/m 2 min 0 min 138 W/m 16,7 km/h (3 Bft) 93,62 %
11.12.2016 13:44 9,0 C 10,0 C 8,9 C 90 % 0 lf 1020,8 hPa 0,0 l/m 0 min 0 min 113 W/m 14,6 km/h (3 Bft) 97,87 %
11.12.2016 13:46 9,0 C 10,0 C 8,9 C 90 % 0 lf 1020,8 hPa 0,0 l/m 0 min 0 min 102 W/m 16,7 km/h (3 Bft) 95,74 %
11.12.2016 13:48 9,0 C 10,0 C 8,9 C 90 % 0 lf 1020,9 hPa 0,0 l/m 0 min 0 min 87 W/m 16,7 km/h (3 Bft) 95,74 %
11.12.2016 13:50 9,0 C 10,0 C 8,9 C 90 % 0 lf 1020,8 hPa 0,0 l/m 0 min 0 min 81 W/m 20,9 km/h (4 Bft) 93,62 %
11.12.2016 13:52 9,0 C 9,4 C 8,3 C 90 % 0 lf 1020,8 hPa 0,0 l/m 0 min 0 min 68 W/m 16,7 km/h (3 Bft) 97,83 %
11.12.2016 13:54 9,0 C 9,4 C 8,3 C 89 % 0 lf 1020,8 hPa 0,0 l/m 0 min 0 min 51 W/m 23,0 km/h (4 Bft) 95,74 %
11.12.2016 13:56 9,0 C 9,4 C 8,3 C 89 % 0 lf 1020,8 hPa 0,0 l/m 0 min 0 min 85 W/m 14,6 km/h (3 Bft) 93,62 %
11.12.2016 13:58 9,0 C 10,0 C 8,9 C 89 % 0 lf 1020,8 hPa 0,0 l/m 2 min 0 min 155 W/m 18,8 km/h (3 Bft) 95,74 %
11.12.2016 14:00 9,0 C 10,6 C 8,9 C 90 % 0 lf 1020,8 hPa 0,0 l/m 2 min 0 min 183 W/m 10,5 km/h (2 Bft) 95,74 %
11.12.2016 14:02 9,0 C 10,6 C 9,4 C 90 % 0 lf 1020,8 hPa 0,0 l/m 2 min 0 min 163 W/m 18,8 km/h (3 Bft) 93,48 %
11.12.2016 14:04 9,1 C 10,6 C 8,9 C 90 % 0 lf 1020,8 hPa 0,0 l/m 2 min 0 min 152 W/m 25,1 km/h (4 Bft) 93,62 %
11.12.2016 14:06 9,1 C 10,6 C 8,9 C 90 % 0 lf 1020,7 hPa 0,0 l/m 2 min 0 min 147 W/m 16,7 km/h (3 Bft) 95,74 %
11.12.2016 14:08 9,1 C 10,6 C 8,9 C 89 % 0 lf 1020,7 hPa 0,0 l/m 2 min 0 min 139 W/m 14,6 km/h (3 Bft) 93,62 %
11.12.2016 14:10 9,1 C 10,6 C 8,9 C 89 % 0 lf 1020,7 hPa 0,0 l/m 2 min 0 min 140 W/m 18,8 km/h (3 Bft) 95,74 %
11.12.2016 14:12 9,1 C 10,6 C 8,9 C 89 % 0 lf 1020,7 hPa 0,0 l/m 2 min 0 min 142 W/m 14,6 km/h (3 Bft) 95,74 %
11.12.2016 14:14 9,1 C 10,6 C 8,9 C 89 % 0 lf 1020,7 hPa 0,0 l/m 2 min 0 min 136 W/m 12,6 km/h (3 Bft) 93,48 %
11.12.2016 14:16 9,1 C 10,6 C 8,9 C 89 % 0 lf 1020,7 hPa 0,0 l/m 2 min 0 min 150 W/m 14,6 km/h (3 Bft) 93,62 %
11.12.2016 14:18 9,1 C 10,6 C 8,9 C 89 % 0 lf 1020,7 hPa 0,0 l/m 2 min 0 min 161 W/m 23,0 km/h (4 Bft) 97,87 %
11.12.2016 14:20 9,2 C 10,6 C 8,9 C 89 % 0 lf 1020,7 hPa 0,0 l/m 2 min 0 min 142 W/m 18,8 km/h (3 Bft) 97,87 %
11.12.2016 14:22 9,2 C 10,6 C 8,9 C 89 % 0 lf 1020,6 hPa 0,0 l/m 0 min 0 min 103 W/m 23,0 km/h (4 Bft) 97,87 %
11.12.2016 14:24 9,2 C 10,0 C 8,9 C 89 % 0 lf 1020,6 hPa 0,0 l/m 0 min 0 min 99 W/m 18,8 km/h (3 Bft) 95,74 %
11.12.2016 14:26 9,2 C 10,0 C 8,9 C 89 % 0 lf 1020,6 hPa 0,0 l/m 2 min 0 min 110 W/m 20,9 km/h (4 Bft) 97,83 %
11.12.2016 14:28 9,2 C 10,0 C 8,9 C 89 % 0 lf 1020,6 hPa 0,0 l/m 0 min 0 min 102 W/m 16,7 km/h (3 Bft) 97,87 %
11.12.2016 14:30 9,2 C 10,0 C 8,9 C 89 % 0 lf 1020,7 hPa 0,0 l/m 0 min 0 min 90 W/m 23,0 km/h (4 Bft) 95,74 %
11.12.2016 14:32 9,2 C 10,0 C 8,9 C 89 % 0 lf 1020,7 hPa 0,0 l/m 0 min 0 min 102 W/m 27,2 km/h (4 Bft) 95,83 %
11.12.2016 14:34 9,2 C 10,0 C 8,9 C 89 % 0 lf 1020,7 hPa 0,0 l/m 2 min 0 min 127 W/m 27,2 km/h (4 Bft) 97,92 %
11.12.2016 14:36 9,2 C 10,0 C 8,9 C 88 % 0 lf 1020,6 hPa 0,0 l/m 2 min 0 min 117 W/m 20,9 km/h (4 Bft) 95,74 %
11.12.2016 14:38 9,2 C 10,0 C 8,9 C 89 % 0 lf 1020,6 hPa 0,0 l/m 2 min 0 min 134 W/m 25,1 km/h (4 Bft) 98,15 %
11.12.2016 14:40 9,2 C 10,0 C 8,9 C 89 % 0 lf 1020,6 hPa 0,0 l/m 2 min 0 min 148 W/m 27,2 km/h (4 Bft) 94,87 %
11.12.2016 14:42 9,2 C 10,0 C 8,9 C 89 % 0 lf 1020,6 hPa 0,0 l/m 2 min 0 min 138 W/m 20,9 km/h (4 Bft) 95,74 %
11.12.2016 14:44 9,2 C 10,0 C 8,9 C 89 % 0 lf 1020,6 hPa 0,0 l/m 2 min 0 min 124 W/m 23,0 km/h (4 Bft) 97,87 %
11.12.2016 14:46 9,2 C 10,0 C 8,9 C 89 % 0 lf 1020,6 hPa 0,0 l/m 2 min 0 min 141 W/m 20,9 km/h (4 Bft) 97,87 %
11.12.2016 14:48 9,2 C 10,0 C 8,9 C 89 % 0 lf 1020,6 hPa 0,0 l/m 2 min 0 min 138 W/m 27,2 km/h (4 Bft) 96,23 %
11.12.2016 14:50 9,2 C 10,6 C 9,4 C 89 % 0 lf 1020,6 hPa 0,0 l/m 2 min 0 min 158 W/m 18,8 km/h (3 Bft) 97,37 %
11.12.2016 14:52 9,2 C 10,6 C 9,4 C 89 % 0 lf 1020,6 hPa 0,0 l/m 2 min 0 min 174 W/m 20,9 km/h (4 Bft) 97,96 %
11.12.2016 14:54 9,2 C 10,6 C 9,4 C 89 % 0 lf 1020,5 hPa 0,0 l/m 2 min 0 min 155 W/m 20,9 km/h (4 Bft) 97,87 %
11.12.2016 14:56 9,2 C 10,6 C 9,4 C 89 % 0 lf 1020,5 hPa 0,0 l/m 2 min 0 min 133 W/m 29,3 km/h (5 Bft) 97,87 %
11.12.2016 14:58 9,2 C 10,0 C 8,9 C 88 % 0 lf 1020,5 hPa 0,0 l/m 2 min 0 min 128 W/m 25,1 km/h (4 Bft) 95,74 %
11.12.2016 15:00 9,2 C 10,6 C 8,9 C 88 % 0 lf 1020,6 hPa 0,0 l/m 2 min 0 min 157 W/m 27,2 km/h (4 Bft) 96,00 %
11.12.2016 15:02 9,2 C 10,6 C 8,9 C 88 % 0 lf 1020,5 hPa 0,0 l/m 2 min 0 min 152 W/m 23,0 km/h (4 Bft) 100,00 %
11.12.2016 15:04 9,2 C 10,0 C 8,9 C 88 % 0 lf 1020,5 hPa 0,0 l/m 2 min 0 min 124 W/m 27,2 km/h (4 Bft) 100,00 %
11.12.2016 15:06 9,2 C 10,0 C 8,9 C 88 % 0 lf 1020,4 hPa 0,0 l/m 2 min 0 min 100 W/m 25,1 km/h (4 Bft) 100,00 %
11.12.2016 15:08 9,2 C 10,0 C 8,3 C 88 % 0 lf 1020,4 hPa 0,0 l/m 2 min 0 min 98 W/m 23,0 km/h (4 Bft) 98,15 %
11.12.2016 15:10 9,2 C 10,0 C 8,3 C 88 % 0 lf 1020,5 hPa 0,0 l/m 2 min 0 min 93 W/m 27,2 km/h (4 Bft) 98,00 %
11.12.2016 15:12 9,2 C 10,0 C 8,3 C 88 % 0 lf 1020,5 hPa 0,0 l/m 2 min 0 min 85 W/m 25,1 km/h (4 Bft) 93,48 %
11.12.2016 15:14 9,1 C 9,4 C 7,8 C 88 % 0 lf 1020,5 hPa 0,0 l/m 2 min 0 min 85 W/m 23,0 km/h (4 Bft) 100,00 %
11.12.2016 15:16 9,1 C 9,4 C 7,8 C 88 % 0 lf 1020,5 hPa 0,0 l/m 2 min 0 min 72 W/m 18,8 km/h (3 Bft) 97,87 %
11.12.2016 15:18 9,1 C 9,4 C 7,8 C 88 % 0 lf 1020,5 hPa 0,0 l/m 0 min 0 min 64 W/m 27,2 km/h (4 Bft) 100,00 %
11.12.2016 15:20 9,1 C 9,4 C 7,8 C 88 % 0 lf 1020,5 hPa 0,0 l/m 0 min 0 min 62 W/m 29,3 km/h (5 Bft) 100,00 %
11.12.2016 15:22 9,0 C 9,4 C 7,8 C 88 % 0 lf 1020,5 hPa 0,0 l/m 0 min 0 min 51 W/m 23,0 km/h (4 Bft) 95,74 %
11.12.2016 15:24 9,0 C 9,4 C 7,8 C 88 % 0 lf 1020,5 hPa 0,0 l/m 0 min 0 min 40 W/m 25,1 km/h (4 Bft) 100,00 %
11.12.2016 15:26 8,9 C 8,9 C 7,8 C 88 % 0 lf 1020,5 hPa 0,0 l/m 0 min 0 min 37 W/m 23,0 km/h (4 Bft) 97,87 %
11.12.2016 15:28 8,9 C 8,9 C 7,8 C 88 % 0 lf 1020,5 hPa 0,0 l/m 0 min 0 min 32 W/m 16,7 km/h (3 Bft) 93,62 %
11.12.2016 15:30 8,9 C 8,9 C 7,8 C 88 % 0 lf 1020,7 hPa 0,0 l/m 0 min 0 min 26 W/m 20,9 km/h (4 Bft) 89,36 %
11.12.2016 15:32 8,9 C 8,9 C 7,2 C 88 % 0 lf 1020,6 hPa 0,0 l/m 0 min 0 min 21 W/m 20,9 km/h (4 Bft) 95,74 %
11.12.2016 15:34 8,8 C 8,9 C 7,2 C 88 % 0 lf 1020,6 hPa 0,0 l/m 0 min 0 min 20 W/m 16,7 km/h (3 Bft) 97,87 %
11.12.2016 15:36 8,8 C 8,9 C 7,2 C 88 % 0 lf 1020,7 hPa 0,0 l/m 0 min 0 min 24 W/m 23,0 km/h (4 Bft) 95,65 %
11.12.2016 15:38 8,8 C 8,9 C 7,2 C 88 % 0 lf 1020,7 hPa 0,0 l/m 0 min 0 min 30 W/m 18,8 km/h (3 Bft) 93,62 %
11.12.2016 15:40 8,8 C 8,9 C 7,2 C 88 % 0 lf 1020,7 hPa 0,0 l/m 0 min 0 min 26 W/m 20,9 km/h (4 Bft) 95,74 %
11.12.2016 15:42 8,7 C 8,9 C 7,2 C 88 % 0 lf 1020,7 hPa 0,0 l/m 0 min 0 min 20 W/m 23,0 km/h (4 Bft) 95,74 %
11.12.2016 15:44 8,7 C 8,9 C 7,2 C 88 % 0 lf 1020,7 hPa 0,0 l/m 0 min 0 min 18 W/m 20,9 km/h (4 Bft) 94,29 %
11.12.2016 15:46 8,7 C 8,9 C 7,2 C 88 % 0 lf 1020,7 hPa 0,0 l/m 0 min 0 min 19 W/m 12,6 km/h (3 Bft) 93,62 %
11.12.2016 15:48 8,7 C 8,9 C 7,2 C 88 % 0 lf 1020,7 hPa 0,0 l/m 0 min 0 min 18 W/m 18,8 km/h (3 Bft) 93,62 %
11.12.2016 15:50 8,6 C 8,3 C 7,2 C 88 % 0 lf 1020,7 hPa 0,0 l/m 0 min 0 min 16 W/m 12,6 km/h (3 Bft) 92,45 %
11.12.2016 15:52 8,6 C 8,3 C 7,2 C 89 % 0 lf 1020,8 hPa 0,0 l/m 0 min 0 min 16 W/m 14,6 km/h (3 Bft) 94,00 %
11.12.2016 15:54 8,6 C 8,3 C 7,2 C 89 % 0 lf 1020,8 hPa 0,0 l/m 0 min 0 min 14 W/m 20,9 km/h (4 Bft) 93,62 %
11.12.2016 15:56 8,6 C 8,3 C 7,2 C 89 % 0 lf 1020,8 hPa 0,0 l/m 0 min 0 min 14 W/m 14,6 km/h (3 Bft) 89,36 %
11.12.2016 15:58 8,5 C 8,3 C 7,2 C 89 % 0 lf 1020,8 hPa 0,0 l/m 0 min 0 min 13 W/m 14,6 km/h (3 Bft) 86,96 %
11.12.2016 16:00 8,5 C 8,3 C 6,7 C 89 % 0 lf 1020,8 hPa 0,0 l/m 0 min 0 min 12 W/m 14,6 km/h (3 Bft) 93,62 %
11.12.2016 16:02 8,4 C 8,3 C 6,7 C 89 % 0 lf 1020,8 hPa 0,0 l/m 0 min 0 min 11 W/m 23,0 km/h (4 Bft) 91,49 %
11.12.2016 16:04 8,4 C 8,3 C 6,7 C 89 % 0 lf 1020,8 hPa 0,0 l/m 0 min 0 min 11 W/m 20,9 km/h (4 Bft) 91,49 %
11.12.2016 16:06 8,4 C 8,3 C 6,7 C 89 % 0 lf 1020,8 hPa 0,0 l/m 0 min 0 min 9 W/m 16,7 km/h (3 Bft) 87,23 %
11.12.2016 16:08 8,4 C 8,3 C 6,7 C 89 % 0 lf 1020,8 hPa 0,0 l/m 0 min 0 min 8 W/m 16,7 km/h (3 Bft) 91,49 %
11.12.2016 16:10 8,4 C 8,3 C 6,7 C 89 % 0 lf 1020,8 hPa 0,0 l/m 0 min 0 min 7 W/m 29,3 km/h (5 Bft) 93,75 %
11.12.2016 16:12 8,3 C 8,3 C 6,7 C 89 % 0 lf 1020,8 hPa 0,0 l/m 0 min 0 min 7 W/m 20,9 km/h (4 Bft) 93,62 %
11.12.2016 16:14 8,3 C 8,3 C 6,7 C 89 % 0 lf 1020,8 hPa 0,0 l/m 0 min 0 min 7 W/m 20,9 km/h (4 Bft) 88,57 %
11.12.2016 16:16 8,3 C 8,3 C 6,7 C 90 % 0 lf 1020,8 hPa 0,0 l/m 0 min 0 min 8 W/m 18,8 km/h (3 Bft) 91,49 %
11.12.2016 16:18 8,3 C 8,3 C 6,7 C 90 % 0 lf 1020,9 hPa 0,0 l/m 0 min 0 min 9 W/m 23,0 km/h (4 Bft) 95,74 %
11.12.2016 16:20 8,3 C 8,3 C 6,7 C 90 % 0 lf 1020,9 hPa 0,0 l/m 0 min 0 min 9 W/m 16,7 km/h (3 Bft) 95,74 %
11.12.2016 16:22 8,3 C 8,3 C 6,7 C 90 % 0 lf 1021,0 hPa 0,0 l/m 0 min 0 min 8 W/m 14,6 km/h (3 Bft) 95,74 %
11.12.2016 16:24 8,3 C 8,3 C 6,7 C 90 % 0 lf 1021,0 hPa 0,0 l/m 0 min 0 min 7 W/m 16,7 km/h (3 Bft) 95,74 %
11.12.2016 16:26 8,2 C 8,3 C 6,7 C 90 % 0 lf 1021,0 hPa 0,0 l/m 0 min 0 min 7 W/m 14,6 km/h (3 Bft) 94,34 %
11.12.2016 16:28 8,2 C 8,3 C 6,7 C 90 % 0 lf 1021,0 hPa 0,0 l/m 0 min 0 min 7 W/m 25,1 km/h (4 Bft) 98,00 %
11.12.2016 16:30 8,2 C 8,3 C 6,7 C 90 % 0 lf 1021,0 hPa 0,0 l/m 0 min 0 min 7 W/m 14,6 km/h (3 Bft) 100,00 %
11.12.2016 16:32 8,2 C 8,3 C 6,7 C 90 % 0 lf 1020,9 hPa 0,0 l/m 0 min 0 min 7 W/m 14,6 km/h (3 Bft) 97,96 %
11.12.2016 16:34 8,2 C 7,8 C 6,7 C 90 % 0 lf 1021,0 hPa 0,0 l/m 0 min 0 min 5 W/m 14,6 km/h (3 Bft) 100,00 %
11.12.2016 16:36 8,1 C 8,3 C 6,7 C 90 % 0 lf 1020,9 hPa 0,0 l/m 0 min 0 min 5 W/m 20,9 km/h (4 Bft) 100,00 %
11.12.2016 16:38 8,1 C 7,8 C 6,7 C 90 % 0 lf 1020,9 hPa 0,0 l/m 0 min 0 min 6 W/m 18,8 km/h (3 Bft) 100,00 %
11.12.2016 16:40 8,1 C 7,8 C 6,7 C 90 % 0 lf 1021,0 hPa 0,0 l/m 0 min 0 min 6 W/m 18,8 km/h (3 Bft) 100,00 %
11.12.2016 16:42 8,1 C 7,8 C 6,1 C 90 % 0 lf 1020,9 hPa 0,0 l/m 0 min 0 min 5 W/m 16,7 km/h (3 Bft) 97,87 %
11.12.2016 16:44 8,1 C 7,8 C 6,1 C 90 % 0 lf 1020,9 hPa 0,0 l/m 0 min 0 min 5 W/m 23,0 km/h (4 Bft) 100,00 %
11.12.2016 16:46 8,0 C 7,8 C 6,1 C 90 % 0 lf 1020,8 hPa 0,0 l/m 0 min 0 min 5 W/m 20,9 km/h (4 Bft) 98,11 %
11.12.2016 16:48 8,0 C 7,8 C 6,1 C 90 % 0 lf 1020,9 hPa 0,0 l/m 0 min 0 min 5 W/m 23,0 km/h (4 Bft) 97,87 %
11.12.2016 16:50 8,0 C 7,8 C 6,1 C 90 % 0 lf 1020,9 hPa 0,0 l/m 0 min 0 min 5 W/m 16,7 km/h (3 Bft) 100,00 %
11.12.2016 16:52 8,0 C 7,8 C 6,1 C 90 % 0 lf 1020,8 hPa 0,0 l/m 0 min 0 min 5 W/m 16,7 km/h (3 Bft) 100,00 %
11.12.2016 16:54 7,9 C 7,8 C 6,1 C 90 % 0 lf 1020,9 hPa 0,0 l/m 0 min 0 min 5 W/m 20,9 km/h (4 Bft) 96,00 %
11.12.2016 16:56 7,9 C 7,8 C 6,1 C 90 % 0 lf 1021,0 hPa 0,0 l/m 0 min 0 min 5 W/m 23,0 km/h (4 Bft) 97,92 %
11.12.2016 16:58 7,9 C 7,8 C 6,1 C 90 % 0 lf 1020,9 hPa 0,0 l/m 0 min 0 min 5 W/m 18,8 km/h (3 Bft) 100,00 %
11.12.2016 17:00 7,9 C 7,8 C 6,1 C 90 % 0 lf 1020,9 hPa 0,0 l/m 0 min 0 min 5 W/m 18,8 km/h (3 Bft) 100,00 %
11.12.2016 17:02 7,9 C 7,8 C 6,1 C 90 % 0 lf 1020,9 hPa 0,0 l/m 0 min 0 min 5 W/m 25,1 km/h (4 Bft) 100,00 %
11.12.2016 17:04 7,9 C 7,8 C 6,7 C 90 % 0 lf 1020,9 hPa 0,0 l/m 0 min 0 min 5 W/m 29,3 km/h (5 Bft) 97,87 %
11.12.2016 17:06 7,9 C 7,8 C 6,7 C 90 % 0 lf 1020,9 hPa 0,0 l/m 0 min 0 min 5 W/m 18,8 km/h (3 Bft) 100,00 %
11.12.2016 17:08 7,9 C 7,8 C 6,1 C 90 % 0 lf 1020,8 hPa 0,0 l/m 0 min 0 min 5 W/m 20,9 km/h (4 Bft) 95,74 %
11.12.2016 17:10 7,9 C 7,8 C 6,1 C 90 % 0 lf 1020,9 hPa 0,0 l/m 0 min 0 min 5 W/m 16,7 km/h (3 Bft) 97,87 %
11.12.2016 17:12 7,9 C 7,8 C 6,1 C 90 % 0 lf 1020,8 hPa 0,0 l/m 0 min 0 min 5 W/m 23,0 km/h (4 Bft) 95,65 %
11.12.2016 17:14 7,9 C 7,8 C 6,1 C 90 % 0 lf 1020,9 hPa 0,0 l/m 0 min 0 min 5 W/m 14,6 km/h (3 Bft) 97,87 %
11.12.2016 17:16 7,9 C 7,8 C 6,1 C 90 % 0 lf 1020,9 hPa 0,0 l/m 0 min 0 min 5 W/m 12,6 km/h (3 Bft) 97,87 %
11.12.2016 17:18 7,9 C 7,8 C 6,1 C 90 % 0 lf 1020,8 hPa 0,0 l/m 0 min 0 min 5 W/m 12,6 km/h (3 Bft) 100,00 %
11.12.2016 17:20 7,9 C 7,8 C 6,1 C 90 % 0 lf 1020,8 hPa 0,0 l/m 0 min 0 min 5 W/m 18,8 km/h (3 Bft) 95,74 %
11.12.2016 17:22 7,9 C 7,8 C 6,1 C 90 % 0 lf 1020,8 hPa 0,0 l/m 0 min 0 min 5 W/m 14,6 km/h (3 Bft) 100,00 %
11.12.2016 17:24 7,9 C 7,8 C 6,1 C 90 % 0 lf 1020,8 hPa 0,0 l/m 0 min 0 min 5 W/m 8,4 km/h (2 Bft) 100,00 %
11.12.2016 17:26 7,9 C 7,8 C 6,1 C 90 % 0 lf 1020,8 hPa 0,0 l/m 0 min 0 min 5 W/m 10,5 km/h (2 Bft) 89,36 %
11.12.2016 17:28 7,9 C 7,8 C 6,1 C 90 % 0 lf 1020,9 hPa 0,0 l/m 0 min 0 min 5 W/m 16,7 km/h (3 Bft) 100,00 %
11.12.2016 17:30 7,8 C 7,8 C 6,1 C 90 % 0 lf 1020,9 hPa 0,0 l/m 0 min 0 min 5 W/m 14,6 km/h (3 Bft) 95,74 %
11.12.2016 17:32 7,8 C 7,8 C 6,1 C 90 % 0 lf 1020,8 hPa 0,0 l/m 0 min 0 min 5 W/m 23,0 km/h (4 Bft) 100,00 %
11.12.2016 17:34 7,8 C 7,8 C 6,1 C 91 % 0 lf 1020,8 hPa 0,0 l/m 0 min 0 min 5 W/m 18,8 km/h (3 Bft) 100,00 %
11.12.2016 17:36 7,8 C 7,8 C 6,1 C 91 % 0 lf 1020,8 hPa 0,0 l/m 0 min 0 min 5 W/m 14,6 km/h (3 Bft) 97,83 %
11.12.2016 17:38 7,8 C 7,8 C 6,1 C 91 % 0 lf 1020,8 hPa 0,0 l/m 0 min 0 min 5 W/m 12,6 km/h (3 Bft) 95,74 %
11.12.2016 17:40 7,8 C 7,8 C 6,1 C 91 % 0 lf 1020,9 hPa 0,0 l/m 0 min 0 min 5 W/m 14,6 km/h (3 Bft) 95,74 %
11.12.2016 17:42 7,8 C 7,8 C 6,1 C 91 % 0 lf 1020,8 hPa 0,0 l/m 0 min 0 min 5 W/m 16,7 km/h (3 Bft) 97,87 %
11.12.2016 17:44 7,8 C 7,8 C 6,1 C 91 % 0 lf 1020,8 hPa 0,0 l/m 0 min 0 min 5 W/m 16,7 km/h (3 Bft) 97,87 %
11.12.2016 17:46 7,8 C 7,8 C 6,1 C 91 % 0 lf 1020,8 hPa 0,0 l/m 0 min 0 min 5 W/m 16,7 km/h (3 Bft) 95,65 %
11.12.2016 17:48 7,8 C 7,8 C 6,1 C 91 % 0 lf 1020,8 hPa 0,0 l/m 0 min 0 min 5 W/m 16,7 km/h (3 Bft) 89,36 %
11.12.2016 17:50 7,8 C 7,8 C 6,1 C 91 % 0 lf 1020,8 hPa 0,0 l/m 0 min 0 min 5 W/m 16,7 km/h (3 Bft) 95,74 %
11.12.2016 17:52 7,8 C 7,8 C 6,1 C 91 % 0 lf 1020,8 hPa 0,0 l/m 0 min 0 min 5 W/m 16,7 km/h (3 Bft) 95,74 %
11.12.2016 17:54 7,8 C 7,8 C 6,1 C 91 % 0 lf 1020,8 hPa 0,0 l/m 0 min 0 min 5 W/m 10,5 km/h (2 Bft) 95,74 %
11.12.2016 17:56 7,8 C 7,8 C 6,1 C 91 % 0 lf 1020,8 hPa 0,0 l/m 0 min 0 min 5 W/m 16,7 km/h (3 Bft) 93,62 %
11.12.2016 17:58 7,8 C 7,8 C 6,1 C 91 % 0 lf 1020,8 hPa 0,0 l/m 0 min 0 min 5 W/m 16,7 km/h (3 Bft) 95,65 %
11.12.2016 18:00 7,8 C 7,8 C 6,1 C 91 % 0 lf 1020,8 hPa 0,0 l/m 0 min 0 min 5 W/m 16,7 km/h (3 Bft) 95,74 %
11.12.2016 18:02 7,7 C 7,8 C 6,1 C 91 % 0 lf 1020,8 hPa 0,0 l/m 0 min 0 min 5 W/m 14,6 km/h (3 Bft) 92,59 %
11.12.2016 18:06 7,7 C 7,8 C 6,1 C 91 % 0 lf 1020,9 hPa 0,0 l/m 0 min 0 min 5 W/m 16,7 km/h (3 Bft) 95,74 %
11.12.2016 18:08 7,7 C 7,8 C 6,1 C 91 % 0 lf 1020,9 hPa 0,0 l/m 0 min 0 min 5 W/m 16,7 km/h (3 Bft) 95,65 %
11.12.2016 18:10 7,7 C 7,8 C 6,1 C 91 % 0 lf 1020,8 hPa 0,0 l/m 0 min 0 min 5 W/m 16,7 km/h (3 Bft) 97,87 %
11.12.2016 18:12 7,7 C 7,8 C 6,1 C 91 % 0 lf 1020,8 hPa 0,0 l/m 0 min 0 min 5 W/m 12,6 km/h (3 Bft) 95,74 %
11.12.2016 18:14 7,7 C 7,8 C 6,1 C 91 % 0 lf 1020,8 hPa 0,0 l/m 0 min 0 min 5 W/m 16,7 km/h (3 Bft) 100,00 %
11.12.2016 18:16 7,7 C 7,8 C 6,1 C 91 % 0 lf 1020,8 hPa 0,0 l/m 0 min 0 min 5 W/m 12,6 km/h (3 Bft) 91,49 %
11.12.2016 18:18 7,7 C 7,8 C 6,1 C 91 % 0 lf 1020,8 hPa 0,0 l/m 0 min 0 min 5 W/m 16,7 km/h (3 Bft) 97,87 %
11.12.2016 18:20 7,6 C 7,8 C 6,1 C 91 % 0 lf 1020,9 hPa 0,0 l/m 0 min 0 min 5 W/m 10,5 km/h (2 Bft) 97,83 %
11.12.2016 18:22 7,6 C 7,8 C 6,1 C 91 % 0 lf 1020,9 hPa 0,0 l/m 0 min 0 min 5 W/m 10,5 km/h (2 Bft) 97,87 %
11.12.2016 18:24 7,6 C 7,8 C 6,1 C 92 % 0 lf 1020,9 hPa 0,0 l/m 0 min 0 min 5 W/m 16,7 km/h (3 Bft) 95,74 %
11.12.2016 18:26 7,6 C 7,8 C 6,1 C 92 % 0 lf 1020,9 hPa 0,0 l/m 0 min 0 min 5 W/m 20,9 km/h (4 Bft) 91,49 %
11.12.2016 18:28 7,6 C 7,8 C 6,1 C 92 % 0 lf 1020,9 hPa 0,0 l/m 0 min 0 min 5 W/m 14,6 km/h (3 Bft) 89,36 %
11.12.2016 18:30 7,6 C 7,8 C 6,1 C 92 % 0 lf 1020,9 hPa 0,0 l/m 0 min 0 min 5 W/m 16,7 km/h (3 Bft) 93,62 %
11.12.2016 18:32 7,6 C 7,8 C 6,1 C 92 % 0 lf 1020,9 hPa 0,0 l/m 0 min 0 min 5 W/m 14,6 km/h (3 Bft) 93,48 %
11.12.2016 18:34 7,6 C 7,8 C 6,1 C 92 % 0 lf 1020,9 hPa 0,0 l/m 0 min 0 min 5 W/m 12,6 km/h (3 Bft) 87,23 %
11.12.2016 18:36 7,6 C 7,2 C 5,6 C 92 % 0 lf 1020,8 hPa 0,0 l/m 0 min 0 min 5 W/m 14,6 km/h (3 Bft) 93,62 %
11.12.2016 18:38 7,6 C 7,2 C 5,6 C 92 % 0 lf 1021,0 hPa 0,0 l/m 0 min 0 min 5 W/m 14,6 km/h (3 Bft) 95,74 %
11.12.2016 18:40 7,5 C 7,2 C 5,6 C 92 % 0 lf 1020,9 hPa 0,0 l/m 0 min 0 min 5 W/m 14,6 km/h (3 Bft) 93,62 %
11.12.2016 18:42 7,5 C 7,2 C 5,6 C 92 % 0 lf 1021,0 hPa 0,0 l/m 0 min 0 min 5 W/m 14,6 km/h (3 Bft) 91,49 %
11.12.2016 18:44 7,5 C 7,2 C 5,6 C 92 % 0 lf 1021,0 hPa 0,0 l/m 0 min 0 min 5 W/m 12,6 km/h (3 Bft) 86,96 %
11.12.2016 18:46 7,5 C 7,2 C 5,6 C 92 % 0 lf 1021,0 hPa 0,0 l/m 0 min 0 min 5 W/m 12,6 km/h (3 Bft) 93,62 %
11.12.2016 18:48 7,5 C 7,2 C 5,6 C 92 % 0 lf 1021,0 hPa 0,0 l/m 0 min 0 min 5 W/m 12,6 km/h (3 Bft) 91,49 %
11.12.2016 18:50 7,5 C 7,2 C 5,6 C 92 % 0 lf 1021,0 hPa 0,0 l/m 0 min 0 min 5 W/m 14,6 km/h (3 Bft) 93,62 %
11.12.2016 18:52 7,4 C 7,2 C 5,6 C 92 % 0 lf 1021,1 hPa 0,0 l/m 0 min 0 min 5 W/m 12,6 km/h (3 Bft) 93,62 %
11.12.2016 18:54 7,4 C 7,2 C 5,6 C 92 % 0 lf 1021,1 hPa 0,0 l/m 0 min 0 min 5 W/m 18,8 km/h (3 Bft) 93,62 %
11.12.2016 18:56 7,4 C 7,2 C 5,6 C 92 % 0 lf 1021,1 hPa 0,0 l/m 0 min 0 min 5 W/m 12,6 km/h (3 Bft) 86,96 %
11.12.2016 18:58 7,4 C 7,2 C 5,6 C 92 % 0 lf 1021,1 hPa 0,0 l/m 0 min 0 min 5 W/m 14,6 km/h (3 Bft) 91,49 %
11.12.2016 19:00 7,4 C 7,2 C 6,1 C 92 % 0 lf 1021,0 hPa 0,0 l/m 0 min 0 min 5 W/m 18,8 km/h (3 Bft) 91,49 %
11.12.2016 19:02 7,4 C 7,2 C 6,1 C 92 % 0 lf 1021,0 hPa 0,0 l/m 0 min 0 min 5 W/m 16,7 km/h (3 Bft) 95,74 %
11.12.2016 19:04 7,4 C 7,2 C 6,1 C 92 % 0 lf 1021,1 hPa 0,0 l/m 0 min 0 min 5 W/m 12,6 km/h (3 Bft) 95,74 %
11.12.2016 19:06 7,4 C 7,2 C 5,6 C 92 % 0 lf 1021,2 hPa 0,0 l/m 0 min 0 min 5 W/m 14,6 km/h (3 Bft) 93,48 %
11.12.2016 19:08 7,4 C 7,2 C 5,6 C 92 % 0 lf 1021,2 hPa 0,0 l/m 0 min 0 min 5 W/m 16,7 km/h (3 Bft) 93,62 %
11.12.2016 19:10 7,4 C 7,2 C 5,6 C 92 % 0 lf 1021,2 hPa 0,0 l/m 0 min 0 min 5 W/m 14,6 km/h (3 Bft) 95,74 %
11.12.2016 19:12 7,4 C 7,2 C 5,6 C 92 % 0 lf 1021,1 hPa 0,0 l/m 0 min 0 min 5 W/m 12,6 km/h (3 Bft) 97,87 %
11.12.2016 19:14 7,4 C 7,2 C 5,6 C 92 % 0 lf 1021,1 hPa 0,0 l/m 0 min 0 min 5 W/m 14,6 km/h (3 Bft) 95,74 %
11.12.2016 19:16 7,4 C 7,2 C 5,6 C 92 % 0 lf 1021,1 hPa 0,0 l/m 0 min 0 min 5 W/m 8,4 km/h (2 Bft) 97,87 %
11.12.2016 19:18 7,4 C 7,2 C 5,6 C 92 % 0 lf 1021,2 hPa 0,0 l/m 0 min 0 min 5 W/m 12,6 km/h (3 Bft) 97,83 %
11.12.2016 19:20 7,4 C 7,2 C 5,6 C 92 % 0 lf 1021,2 hPa 0,0 l/m 0 min 0 min 5 W/m 14,6 km/h (3 Bft) 95,74 %
11.12.2016 19:22 7,3 C 7,2 C 5,6 C 92 % 0 lf 1021,2 hPa 0,0 l/m 0 min 0 min 5 W/m 14,6 km/h (3 Bft) 95,74 %
11.12.2016 19:24 7,3 C 7,2 C 5,6 C 93 % 0 lf 1021,3 hPa 0,0 l/m 0 min 0 min 5 W/m 16,7 km/h (3 Bft) 97,87 %
11.12.2016 19:26 7,3 C 7,2 C 5,6 C 93 % 0 lf 1021,2 hPa 0,0 l/m 0 min 0 min 5 W/m 14,6 km/h (3 Bft) 100,00 %
11.12.2016 19:28 7,3 C 7,2 C 5,6 C 93 % 0 lf 1021,3 hPa 0,0 l/m 0 min 0 min 5 W/m 12,6 km/h (3 Bft) 95,74 %
11.12.2016 19:30 7,3 C 7,2 C 5,6 C 93 % 0 lf 1021,3 hPa 0,0 l/m 0 min 0 min 5 W/m 20,9 km/h (4 Bft) 93,48 %
11.12.2016 19:32 7,3 C 7,2 C 5,6 C 93 % 0 lf 1021,4 hPa 0,0 l/m 0 min 0 min 5 W/m 12,6 km/h (3 Bft) 89,36 %
11.12.2016 19:34 7,3 C 7,2 C 5,6 C 93 % 0 lf 1021,3 hPa 0,0 l/m 0 min 0 min 5 W/m 14,6 km/h (3 Bft) 95,74 %
11.12.2016 19:36 7,3 C 7,2 C 5,6 C 93 % 0 lf 1021,3 hPa 0,0 l/m 0 min 0 min 5 W/m 18,8 km/h (3 Bft) 95,74 %
11.12.2016 19:38 7,3 C 7,2 C 6,1 C 93 % 0 lf 1021,3 hPa 0,0 l/m 0 min 0 min 5 W/m 16,7 km/h (3 Bft) 97,87 %
11.12.2016 19:40 7,3 C 7,2 C 6,1 C 93 % 0 lf 1021,4 hPa 0,0 l/m 0 min 0 min 5 W/m 18,8 km/h (3 Bft) 95,74 %
11.12.2016 19:42 7,3 C 7,2 C 6,1 C 93 % 0 lf 1021,4 hPa 0,0 l/m 0 min 0 min 5 W/m 14,6 km/h (3 Bft) 95,65 %
11.12.2016 19:44 7,3 C 7,2 C 5,6 C 93 % 0 lf 1021,4 hPa 0,0 l/m 0 min 0 min 5 W/m 18,8 km/h (3 Bft) 95,74 %
11.12.2016 19:46 7,3 C 7,2 C 5,6 C 93 % 0 lf 1021,4 hPa 0,0 l/m 0 min 0 min 5 W/m 18,8 km/h (3 Bft) 95,74 %
11.12.2016 19:48 7,3 C 7,2 C 6,1 C 93 % 0 lf 1021,4 hPa 0,0 l/m 0 min 0 min 5 W/m 23,0 km/h (4 Bft) 97,87 %
11.12.2016 19:50 7,3 C 7,2 C 6,1 C 93 % 0 lf 1021,4 hPa 0,0 l/m 0 min 0 min 5 W/m 14,6 km/h (3 Bft) 95,74 %
11.12.2016 19:52 7,3 C 7,2 C 5,6 C 93 % 0 lf 1021,4 hPa 0,0 l/m 0 min 0 min 5 W/m 14,6 km/h (3 Bft) 95,74 %
11.12.2016 19:54 7,3 C 7,2 C 6,1 C 93 % 0 lf 1021,4 hPa 0,0 l/m 0 min 0 min 5 W/m 18,8 km/h (3 Bft) 95,65 %
11.12.2016 19:56 7,3 C 7,2 C 6,1 C 93 % 0 lf 1021,5 hPa 0,0 l/m 0 min 0 min 5 W/m 16,7 km/h (3 Bft) 93,62 %
11.12.2016 19:58 7,3 C 7,2 C 6,1 C 93 % 0 lf 1021,5 hPa 0,0 l/m 0 min 0 min 5 W/m 14,6 km/h (3 Bft) 100,00 %
11.12.2016 20:00 7,3 C 7,8 C 6,1 C 93 % 0 lf 1021,4 hPa 0,0 l/m 0 min 0 min 5 W/m 16,7 km/h (3 Bft) 100,00 %
11.12.2016 20:02 7,3 C 7,8 C 6,1 C 93 % 0 lf 1021,4 hPa 0,0 l/m 0 min 0 min 5 W/m 18,8 km/h (3 Bft) 95,74 %
11.12.2016 20:04 7,3 C 7,8 C 6,1 C 93 % 0 lf 1021,4 hPa 0,0 l/m 0 min 0 min 5 W/m 16,7 km/h (3 Bft) 97,87 %
11.12.2016 20:06 7,3 C 7,8 C 6,1 C 93 % 0 lf 1021,5 hPa 0,0 l/m 0 min 0 min 5 W/m 14,6 km/h (3 Bft) 100,00 %
11.12.2016 20:08 7,4 C 7,8 C 6,1 C 93 % 0 lf 1021,5 hPa 0,0 l/m 0 min 0 min 5 W/m 8,4 km/h (2 Bft) 97,87 %
11.12.2016 20:10 7,3 C 7,8 C 6,1 C 93 % 0 lf 1021,5 hPa 0,0 l/m 0 min 0 min 5 W/m 14,6 km/h (3 Bft) 100,00 %
11.12.2016 20:12 7,4 C 7,8 C 6,1 C 93 % 0 lf 1021,5 hPa 0,0 l/m 0 min 0 min 5 W/m 18,8 km/h (3 Bft) 97,87 %
11.12.2016 20:14 7,4 C 7,2 C 5,6 C 93 % 0 lf 1021,6 hPa 0,0 l/m 0 min 0 min 5 W/m 16,7 km/h (3 Bft) 100,00 %
11.12.2016 20:16 7,4 C 7,2 C 5,6 C 93 % 0 lf 1021,5 hPa 0,0 l/m 0 min 0 min 5 W/m 14,6 km/h (3 Bft) 97,83 %
11.12.2016 20:18 7,4 C 7,2 C 5,6 C 93 % 0 lf 1021,5 hPa 0,0 l/m 0 min 0 min 5 W/m 16,7 km/h (3 Bft) 100,00 %
11.12.2016 20:20 7,4 C 7,2 C 5,6 C 93 % 0 lf 1021,6 hPa 0,0 l/m 0 min 0 min 5 W/m 10,5 km/h (2 Bft) 97,87 %
11.12.2016 20:22 7,3 C 7,2 C 5,6 C 93 % 0 lf 1021,6 hPa 0,0 l/m 0 min 0 min 5 W/m 14,6 km/h (3 Bft) 97,87 %
11.12.2016 20:24 7,3 C 7,2 C 5,6 C 93 % 0 lf 1021,6 hPa 0,0 l/m 0 min 0 min 5 W/m 20,9 km/h (4 Bft) 100,00 %
11.12.2016 20:26 7,3 C 7,2 C 5,6 C 93 % 0 lf 1021,6 hPa 0,0 l/m 0 min 0 min 5 W/m 12,6 km/h (3 Bft) 100,00 %
11.12.2016 20:28 7,3 C 7,2 C 5,6 C 93 % 0 lf 1021,6 hPa 0,0 l/m 0 min 0 min 5 W/m 14,6 km/h (3 Bft) 100,00 %
11.12.2016 20:30 7,3 C 7,2 C 5,6 C 93 % 0 lf 1021,6 hPa 0,0 l/m 0 min 0 min 5 W/m 16,7 km/h (3 Bft) 97,87 %
11.12.2016 20:32 7,3 C 7,2 C 5,6 C 93 % 0 lf 1021,6 hPa 0,0 l/m 0 min 0 min 5 W/m 18,8 km/h (3 Bft) 100,00 %
11.12.2016 20:34 7,3 C 7,2 C 5,6 C 93 % 0 lf 1021,5 hPa 0,0 l/m 0 min 0 min 5 W/m 14,6 km/h (3 Bft) 95,74 %
11.12.2016 20:36 7,3 C 7,2 C 5,6 C 93 % 0 lf 1021,5 hPa 0,0 l/m 0 min 0 min 5 W/m 10,5 km/h (2 Bft) 95,74 %
11.12.2016 20:38 7,3 C 7,2 C 5,6 C 93 % 0 lf 1021,5 hPa 0,0 l/m 0 min 0 min 5 W/m 14,6 km/h (3 Bft) 97,83 %
11.12.2016 20:40 7,3 C 7,2 C 5,6 C 93 % 0 lf 1021,6 hPa 0,0 l/m 0 min 0 min 5 W/m 25,1 km/h (4 Bft) 100,00 %
11.12.2016 20:42 7,3 C 7,2 C 5,6 C 93 % 0 lf 1021,5 hPa 0,0 l/m 0 min 0 min 5 W/m 18,8 km/h (3 Bft) 100,00 %
11.12.2016 20:44 7,3 C 7,2 C 6,1 C 93 % 0 lf 1021,5 hPa 0,0 l/m 0 min 0 min 5 W/m 14,6 km/h (3 Bft) 95,74 %
11.12.2016 20:46 7,3 C 7,2 C 6,1 C 93 % 0 lf 1021,6 hPa 0,0 l/m 0 min 0 min 5 W/m 16,7 km/h (3 Bft) 97,87 %
11.12.2016 20:48 7,3 C 7,2 C 6,1 C 93 % 0 lf 1021,6 hPa 0,0 l/m 0 min 2 min 5 W/m 14,6 km/h (3 Bft) 100,00 %
11.12.2016 20:50 7,3 C 7,8 C 6,1 C 94 % 0 lf 1021,5 hPa 0,0 l/m 0 min 0 min 5 W/m 23,0 km/h (4 Bft) 97,83 %
11.12.2016 20:52 7,3 C 7,8 C 6,1 C 94 % 7 lf 1021,5 hPa 0,0 l/m 0 min 2 min 5 W/m 18,8 km/h (3 Bft) 100,00 %
11.12.2016 20:54 7,4 C 7,8 C 6,1 C 94 % 10 lf 1021,5 hPa 0,0 l/m 0 min 2 min 5 W/m 18,8 km/h (3 Bft) 93,62 %
11.12.2016 20:56 7,4 C 7,8 C 6,1 C 94 % 10 lf 1021,4 hPa 0,0 l/m 0 min 2 min 5 W/m 14,6 km/h (3 Bft) 97,87 %
11.12.2016 20:58 7,4 C 7,8 C 6,1 C 94 % 7 lf 1021,4 hPa 0,0 l/m 0 min 0 min 5 W/m 16,7 km/h (3 Bft) 95,74 %
11.12.2016 21:00 7,4 C 7,8 C 6,1 C 94 % 6 lf 1021,4 hPa 0,0 l/m 0 min 0 min 5 W/m 23,0 km/h (4 Bft) 97,87 %
11.12.2016 21:02 7,4 C 7,8 C 6,1 C 94 % 3 lf 1021,4 hPa 0,0 l/m 0 min 0 min 5 W/m 23,0 km/h (4 Bft) 93,48 %
11.12.2016 21:04 7,4 C 7,8 C 6,1 C 94 % 2 lf 1021,4 hPa 0,0 l/m 0 min 0 min 5 W/m 18,8 km/h (3 Bft) 97,87 %
11.12.2016 21:06 7,4 C 7,8 C 6,1 C 94 % 13 lf 1021,4 hPa 0,0 l/m 0 min 2 min 5 W/m 14,6 km/h (3 Bft) 97,87 %
11.12.2016 21:08 7,4 C 7,8 C 6,1 C 94 % 15 lf 1021,4 hPa 0,0 l/m 0 min 2 min 5 W/m 18,8 km/h (3 Bft) 95,74 %
11.12.2016 21:10 7,4 C 7,2 C 6,1 C 94 % 15 lf 1021,4 hPa 0,0 l/m 0 min 2 min 5 W/m 18,8 km/h (3 Bft) 97,87 %
11.12.2016 21:12 7,4 C 7,2 C 6,1 C 94 % 15 lf 1021,4 hPa 0,0 l/m 0 min 2 min 5 W/m 16,7 km/h (3 Bft) 97,87 %
11.12.2016 21:14 7,4 C 7,2 C 6,1 C 94 % 15 lf 1021,4 hPa 0,0 l/m 0 min 0 min 5 W/m 18,8 km/h (3 Bft) 93,48 %
11.12.2016 21:16 7,5 C 7,2 C 6,1 C 94 % 15 lf 1021,3 hPa 0,0 l/m 0 min 0 min 5 W/m 20,9 km/h (4 Bft) 97,87 %
11.12.2016 21:18 7,5 C 7,2 C 5,6 C 94 % 15 lf 1021,4 hPa 0,0 l/m 0 min 0 min 5 W/m 10,5 km/h (2 Bft) 97,87 %
11.12.2016 21:20 7,5 C 7,2 C 5,6 C 94 % 15 lf 1021,4 hPa 0,0 l/m 0 min 0 min 5 W/m 16,7 km/h (3 Bft) 93,62 %
11.12.2016 21:22 7,5 C 7,2 C 5,6 C 94 % 15 lf 1021,4 hPa 0,0 l/m 0 min 0 min 5 W/m 18,8 km/h (3 Bft) 95,74 %
11.12.2016 21:24 7,5 C 7,2 C 5,6 C 94 % 15 lf 1021,3 hPa 0,0 l/m 0 min 0 min 5 W/m 16,7 km/h (3 Bft) 93,62 %
11.12.2016 21:26 7,5 C 7,2 C 5,6 C 94 % 15 lf 1021,3 hPa 0,0 l/m 0 min 0 min 5 W/m 10,5 km/h (2 Bft) 93,48 %
11.12.2016 21:28 7,5 C 7,2 C 5,6 C 94 % 15 lf 1021,3 hPa 0,0 l/m 0 min 0 min 5 W/m 14,6 km/h (3 Bft) 91,49 %
11.12.2016 21:30 7,4 C 7,2 C 5,6 C 94 % 15 lf 1021,3 hPa 0,0 l/m 0 min 2 min 5 W/m 16,7 km/h (3 Bft) 93,62 %
11.12.2016 21:32 7,4 C 7,2 C 5,6 C 94 % 15 lf 1021,5 hPa 0,0 l/m 0 min 0 min 5 W/m 14,6 km/h (3 Bft) 89,36 %
11.12.2016 21:34 7,5 C 7,2 C 5,6 C 94 % 14 lf 1021,5 hPa 0,0 l/m 0 min 0 min 5 W/m 20,9 km/h (4 Bft) 93,62 %
11.12.2016 21:36 7,4 C 7,2 C 5,6 C 94 % 14 lf 1021,4 hPa 0,0 l/m 0 min 0 min 5 W/m 12,6 km/h (3 Bft) 87,23 %
11.12.2016 21:38 7,4 C 7,2 C 5,6 C 94 % 13 lf 1021,5 hPa 0,0 l/m 0 min 0 min 5 W/m 14,6 km/h (3 Bft) 91,30 %
11.12.2016 21:40 7,4 C 7,2 C 5,6 C 94 % 13 lf 1021,5 hPa 0,0 l/m 0 min 0 min 5 W/m 10,5 km/h (2 Bft) 91,49 %
11.12.2016 21:42 7,4 C 7,2 C 5,6 C 94 % 12 lf 1021,5 hPa 0,0 l/m 0 min 0 min 5 W/m 14,6 km/h (3 Bft) 91,49 %
11.12.2016 21:44 7,4 C 7,2 C 5,6 C 94 % 10 lf 1021,5 hPa 0,0 l/m 0 min 0 min 5 W/m 12,6 km/h (3 Bft) 93,62 %
11.12.2016 21:46 7,4 C 7,2 C 5,6 C 94 % 10 lf 1021,5 hPa 0,0 l/m 0 min 2 min 5 W/m 14,6 km/h (3 Bft) 95,74 %
11.12.2016 21:48 7,4 C 7,2 C 5,6 C 94 % 9 lf 1021,5 hPa 0,0 l/m 0 min 2 min 5 W/m 18,8 km/h (3 Bft) 91,30 %
11.12.2016 21:50 7,4 C 7,2 C 5,6 C 94 % 12 lf 1021,4 hPa 0,0 l/m 0 min 2 min 5 W/m 16,7 km/h (3 Bft) 95,74 %
11.12.2016 21:52 7,4 C 7,2 C 5,6 C 94 % 15 lf 1021,4 hPa 0,0 l/m 0 min 2 min 5 W/m 18,8 km/h (3 Bft) 95,74 %
11.12.2016 21:54 7,4 C 7,2 C 5,6 C 94 % 15 lf 1021,4 hPa 0,0 l/m 0 min 2 min 5 W/m 18,8 km/h (3 Bft) 97,87 %
11.12.2016 21:56 7,4 C 7,2 C 5,6 C 94 % 15 lf 1021,4 hPa 0,0 l/m 0 min 0 min 5 W/m 12,6 km/h (3 Bft) 93,62 %
11.12.2016 21:58 7,4 C 7,2 C 5,6 C 94 % 15 lf 1021,4 hPa 0,0 l/m 0 min 2 min 5 W/m 12,6 km/h (3 Bft) 93,62 %
11.12.2016 22:00 7,4 C 7,2 C 5,6 C 94 % 15 lf 1021,4 hPa 0,0 l/m 0 min 2 min 5 W/m 10,5 km/h (2 Bft) 93,48 %
11.12.2016 22:02 7,4 C 7,2 C 5,6 C 94 % 15 lf 1021,5 hPa 0,0 l/m 0 min 0 min 5 W/m 20,9 km/h (4 Bft) 93,62 %
11.12.2016 22:04 7,4 C 7,2 C 5,6 C 94 % 15 lf 1021,5 hPa 0,0 l/m 0 min 2 min 5 W/m 16,7 km/h (3 Bft) 95,74 %
11.12.2016 22:06 7,4 C 7,2 C 5,6 C 94 % 15 lf 1021,5 hPa 0,0 l/m 0 min 2 min 5 W/m 16,7 km/h (3 Bft) 93,62 %
11.12.2016 22:08 7,4 C 7,2 C 5,6 C 94 % 15 lf 1021,4 hPa 0,0 l/m 0 min 2 min 5 W/m 18,8 km/h (3 Bft) 93,62 %
11.12.2016 22:10 7,4 C 7,2 C 5,6 C 94 % 15 lf 1021,5 hPa 0,0 l/m 0 min 0 min 5 W/m 16,7 km/h (3 Bft) 91,49 %
11.12.2016 22:12 7,4 C 7,2 C 5,6 C 94 % 15 lf 1021,5 hPa 0,0 l/m 0 min 0 min 5 W/m 16,7 km/h (3 Bft) 93,48 %
11.12.2016 22:14 7,4 C 7,2 C 5,6 C 94 % 15 lf 1021,5 hPa 0,0 l/m 0 min 0 min 5 W/m 12,6 km/h (3 Bft) 95,74 %
11.12.2016 22:16 7,4 C 7,2 C 5,6 C 94 % 15 lf 1021,5 hPa 0,0 l/m 0 min 0 min 5 W/m 18,8 km/h (3 Bft) 97,87 %
11.12.2016 22:18 7,4 C 7,2 C 5,6 C 94 % 15 lf 1021,4 hPa 0,0 l/m 0 min 2 min 5 W/m 23,0 km/h (4 Bft) 97,87 %
11.12.2016 22:20 7,4 C 7,2 C 5,6 C 94 % 15 lf 1021,4 hPa 0,0 l/m 0 min 0 min 5 W/m 20,9 km/h (4 Bft) 97,87 %
11.12.2016 22:22 7,4 C 7,2 C 5,6 C 94 % 15 lf 1021,4 hPa 0,0 l/m 0 min 0 min 5 W/m 18,8 km/h (3 Bft) 93,62 %
11.12.2016 22:24 7,4 C 7,2 C 6,1 C 94 % 15 lf 1021,4 hPa 0,0 l/m 0 min 0 min 5 W/m 25,1 km/h (4 Bft) 97,83 %
11.12.2016 22:26 7,4 C 7,2 C 6,1 C 94 % 15 lf 1021,4 hPa 0,0 l/m 0 min 0 min 5 W/m 14,6 km/h (3 Bft) 97,87 %
11.12.2016 22:28 7,4 C 7,2 C 5,6 C 94 % 15 lf 1021,5 hPa 0,0 l/m 0 min 0 min 5 W/m 18,8 km/h (3 Bft) 95,74 %
11.12.2016 22:30 7,4 C 7,8 C 5,6 C 94 % 15 lf 1021,5 hPa 0,0 l/m 0 min 0 min 5 W/m 20,9 km/h (4 Bft) 95,74 %
11.12.2016 22:32 7,5 C 7,8 C 6,1 C 94 % 15 lf 1021,5 hPa 0,0 l/m 0 min 0 min 5 W/m 25,1 km/h (4 Bft) 95,74 %
11.12.2016 22:34 7,5 C 7,8 C 6,1 C 94 % 14 lf 1021,6 hPa 0,0 l/m 0 min 0 min 5 W/m 23,0 km/h (4 Bft) 97,87 %
11.12.2016 22:36 7,5 C 7,8 C 6,1 C 94 % 13 lf 1021,5 hPa 0,0 l/m 0 min 0 min 5 W/m 23,0 km/h (4 Bft) 97,83 %
11.12.2016 22:38 7,5 C 7,8 C 6,1 C 94 % 9 lf 1021,5 hPa 0,0 l/m 0 min 0 min 5 W/m 18,8 km/h (3 Bft) 97,87 %
11.12.2016 22:40 7,5 C 7,8 C 6,1 C 94 % 4 lf 1021,5 hPa 0,0 l/m 0 min 0 min 5 W/m 16,7 km/h (3 Bft) 97,87 %
11.12.2016 22:42 7,5 C 7,8 C 6,1 C 94 % 3 lf 1021,5 hPa 0,0 l/m 0 min 0 min 5 W/m 18,8 km/h (3 Bft) 95,74 %
11.12.2016 22:44 7,5 C 7,8 C 6,1 C 94 % 2 lf 1021,6 hPa 0,0 l/m 0 min 0 min 5 W/m 14,6 km/h (3 Bft) 95,74 %
11.12.2016 22:46 7,5 C 7,8 C 6,1 C 94 % 1 lf 1021,5 hPa 0,0 l/m 0 min 0 min 5 W/m 14,6 km/h (3 Bft) 97,87 %
11.12.2016 22:48 7,6 C 7,8 C 6,1 C 94 % 0 lf 1021,5 hPa 0,0 l/m 0 min 0 min 5 W/m 18,8 km/h (3 Bft) 95,65 %
11.12.2016 22:50 7,6 C 7,8 C 6,1 C 94 % 0 lf 1021,5 hPa 0,0 l/m 0 min 0 min 5 W/m 18,8 km/h (3 Bft) 97,87 %
11.12.2016 22:52 7,6 C 7,8 C 6,1 C 94 % 0 lf 1021,5 hPa 0,0 l/m 0 min 0 min 5 W/m 14,6 km/h (3 Bft) 93,62 %
11.12.2016 22:54 7,6 C 7,8 C 6,1 C 94 % 0 lf 1021,5 hPa 0,0 l/m 0 min 0 min 5 W/m 14,6 km/h (3 Bft) 97,87 %
11.12.2016 22:56 7,6 C 7,8 C 6,1 C 94 % 0 lf 1021,5 hPa 0,0 l/m 0 min 0 min 5 W/m 20,9 km/h (4 Bft) 97,87 %
11.12.2016 22:58 7,6 C 7,8 C 6,1 C 94 % 0 lf 1021,6 hPa 0,0 l/m 0 min 0 min 5 W/m 18,8 km/h (3 Bft) 95,65 %
11.12.2016 23:00 7,6 C 7,8 C 6,1 C 94 % 1 lf 1021,6 hPa 0,0 l/m 0 min 0 min 5 W/m 18,8 km/h (3 Bft) 95,74 %
11.12.2016 23:02 7,6 C 7,8 C 6,1 C 94 % 15 lf 1021,6 hPa 0,0 l/m 0 min 2 min 5 W/m 18,8 km/h (3 Bft) 95,74 %
11.12.2016 23:04 7,6 C 7,8 C 6,1 C 94 % 15 lf 1021,7 hPa 0,0 l/m 0 min 2 min 5 W/m 18,8 km/h (3 Bft) 95,74 %
11.12.2016 23:06 7,6 C 7,8 C 6,1 C 94 % 15 lf 1021,6 hPa 0,0 l/m 0 min 2 min 5 W/m 10,5 km/h (2 Bft) 95,74 %
11.12.2016 23:08 7,6 C 7,8 C 6,1 C 94 % 15 lf 1021,7 hPa 0,0 l/m 0 min 0 min 5 W/m 14,6 km/h (3 Bft) 100,00 %
11.12.2016 23:10 7,6 C 7,8 C 6,1 C 94 % 15 lf 1021,7 hPa 0,0 l/m 0 min 0 min 5 W/m 18,8 km/h (3 Bft) 95,65 %
11.12.2016 23:12 7,6 C 7,8 C 6,1 C 94 % 15 lf 1021,7 hPa 0,0 l/m 0 min 0 min 5 W/m 14,6 km/h (3 Bft) 95,74 %
11.12.2016 23:14 7,6 C 7,8 C 6,1 C 94 % 15 lf 1021,7 hPa 0,0 l/m 0 min 0 min 5 W/m 20,9 km/h (4 Bft) 95,74 %
11.12.2016 23:16 7,6 C 7,8 C 6,1 C 94 % 15 lf 1021,7 hPa 0,0 l/m 0 min 0 min 5 W/m 16,7 km/h (3 Bft) 97,87 %
11.12.2016 23:18 7,6 C 7,8 C 6,1 C 94 % 15 lf 1021,7 hPa 0,0 l/m 0 min 0 min 5 W/m 18,8 km/h (3 Bft) 97,87 %
11.12.2016 23:20 7,6 C 7,8 C 6,1 C 94 % 15 lf 1021,7 hPa 0,0 l/m 0 min 0 min 5 W/m 23,0 km/h (4 Bft) 93,62 %
11.12.2016 23:22 7,6 C 7,8 C 6,1 C 94 % 15 lf 1021,7 hPa 0,0 l/m 0 min 0 min 5 W/m 20,9 km/h (4 Bft) 95,65 %
11.12.2016 23:24 7,6 C 7,8 C 6,1 C 94 % 15 lf 1021,8 hPa 0,0 l/m 0 min 0 min 5 W/m 18,8 km/h (3 Bft) 95,74 %
11.12.2016 23:26 7,6 C 7,8 C 6,1 C 94 % 15 lf 1021,8 hPa 0,0 l/m 0 min 0 min 5 W/m 16,7 km/h (3 Bft) 95,74 %
11.12.2016 23:28 7,6 C 7,8 C 6,1 C 94 % 15 lf 1021,8 hPa 0,0 l/m 0 min 0 min 5 W/m 16,7 km/h (3 Bft) 97,87 %
11.12.2016 23:30 7,6 C 7,8 C 6,1 C 94 % 15 lf 1021,9 hPa 0,0 l/m 0 min 0 min 5 W/m 16,7 km/h (3 Bft) 95,74 %
11.12.2016 23:32 7,6 C 7,8 C 6,1 C 94 % 14 lf 1021,8 hPa 0,0 l/m 0 min 0 min 5 W/m 18,8 km/h (3 Bft) 97,87 %
11.12.2016 23:34 7,6 C 7,8 C 6,1 C 94 % 13 lf 1021,8 hPa 0,0 l/m 0 min 0 min 5 W/m 20,9 km/h (4 Bft) 97,83 %
11.12.2016 23:36 7,6 C 7,8 C 6,1 C 94 % 11 lf 1021,8 hPa 0,0 l/m 0 min 0 min 5 W/m 20,9 km/h (4 Bft) 93,62 %
11.12.2016 23:38 7,6 C 7,8 C 6,1 C 94 % 9 lf 1021,8 hPa 0,0 l/m 0 min 2 min 5 W/m 14,6 km/h (3 Bft) 93,62 %
11.12.2016 23:40 7,6 C 7,8 C 6,1 C 94 % 5 lf 1021,9 hPa 0,0 l/m 0 min 0 min 5 W/m 12,6 km/h (3 Bft) 91,49 %
11.12.2016 23:42 7,6 C 7,8 C 6,1 C 94 % 3 lf 1021,9 hPa 0,0 l/m 0 min 0 min 5 W/m 16,7 km/h (3 Bft) 89,36 %
11.12.2016 23:44 7,6 C 7,8 C 6,1 C 94 % 2 lf 1021,9 hPa 0,0 l/m 0 min 0 min 5 W/m 12,6 km/h (3 Bft) 93,62 %
11.12.2016 23:46 7,6 C 7,8 C 6,1 C 94 % 1 lf 1021,9 hPa 0,0 l/m 0 min 0 min 5 W/m 12,6 km/h (3 Bft) 95,65 %
11.12.2016 23:48 7,6 C 7,8 C 6,1 C 94 % 0 lf 1022,0 hPa 0,0 l/m 0 min 0 min 5 W/m 14,6 km/h (3 Bft) 97,87 %
11.12.2016 23:50 7,6 C 7,8 C 6,1 C 94 % 0 lf 1021,9 hPa 0,0 l/m 0 min 0 min 5 W/m 14,6 km/h (3 Bft) 97,87 %
11.12.2016 23:52 7,6 C 7,8 C 6,1 C 94 % 0 lf 1021,9 hPa 0,0 l/m 0 min 0 min 5 W/m 10,5 km/h (2 Bft) 95,74 %
11.12.2016 23:54 7,6 C 7,8 C 6,1 C 94 % 0 lf 1022,0 hPa 0,0 l/m 0 min 0 min 5 W/m 16,7 km/h (3 Bft) 97,87 %
11.12.2016 23:56 7,6 C 7,8 C 6,1 C 94 % 0 lf 1021,9 hPa 0,0 l/m 0 min 0 min 5 W/m 14,6 km/h (3 Bft) 95,74 %
11.12.2016 23:58 7,6 C 7,8 C 6,1 C 94 % 0 lf 1021,9 hPa 0,0 l/m 0 min 0 min 5 W/m 14,6 km/h (3 Bft) 97,83 %
_ Min-Zeit 19:20 07:14 07:20 01:34 00:00 03:26 - - - - 17:24 10:12
Minimum _ 7,3 C 7,2 C 5,6 C 86 % 0 lf 1014,0 hPa - - - - 8,4 km/h (2 Bft) 86,96 %
_ Max-Zeit 01:40 13:28 14:02 00:00 02:18 23:48 02:24 10:12 01:52 13:28 04:10 00:06
Maximum _ 10,3 C 11,1 C 9,4 C 95 % 15 lf 1022,0 hPa 0,2 l/m 2 min 2 min 238 W/m 62,8 km/h
SW (8 Bft)
100,00 %
Durchschnitt _ 8,4 C 8,5 C 7,0 C 92 % 4 lf 1019,2 hPa #2,0 l/m #1:58 h #4:08 h 28 W/m 22,4 km/h (4 Bft) 95,94 %
© 2016 W. Hausmann